<?xml version="1.0" encoding="UTF-8" standalone="no" ?>
<gpx xmlns="http://www.topografix.com/GPX/1/1" xmlns:xsi="http://www.w3.org/2001/XMLSchema-instance" xsi:schemaLocation="http://www.topografix.com/GPX/1/1 http://www.topografix.com/GPX/1/1/gpx.xsd" version="1.1" creator="VisuGPX - https://www.visugpx.com">
  <metadata>
    <name>GR20 20150701 Etape 9 l'Onda - Vizzavona</name>
    <desc><![CDATA[GR20 Etape 9
Météo ensoleillée]]></desc>
  </metadata>
  <trk>
    <name><![CDATA[ACTIVE LOG065040]]></name>
    <trkseg>
      <trkpt lat="42.15311" lon="9.07377">
        <ele>1361.333</ele>
        <time>2015-07-01T04:50:38Z</time>
      </trkpt>
      <trkpt lat="42.15311" lon="9.07378">
        <ele>1361.333</ele>
        <time>2015-07-01T04:50:40Z</time>
      </trkpt>
      <trkpt lat="42.15311" lon="9.07378">
        <ele>1366.128</ele>
        <time>2015-07-01T04:50:44Z</time>
      </trkpt>
      <trkpt lat="42.15311" lon="9.07378">
        <ele>1368.671</ele>
        <time>2015-07-01T04:50:47Z</time>
      </trkpt>
      <trkpt lat="42.15311" lon="9.07378">
        <ele>1370.051</ele>
        <time>2015-07-01T04:50:49Z</time>
      </trkpt>
      <trkpt lat="42.15311" lon="9.07378">
        <ele>1374.644</ele>
        <time>2015-07-01T04:50:53Z</time>
      </trkpt>
      <trkpt lat="42.15311" lon="9.07378">
        <ele>1376.213</ele>
        <time>2015-07-01T04:50:55Z</time>
      </trkpt>
      <trkpt lat="42.1531" lon="9.07379">
        <ele>1378.169</ele>
        <time>2015-07-01T04:50:59Z</time>
      </trkpt>
      <trkpt lat="42.1531" lon="9.07379">
        <ele>1381.297</ele>
        <time>2015-07-01T04:51:01Z</time>
      </trkpt>
      <trkpt lat="42.15309" lon="9.07379">
        <ele>1381.987</ele>
        <time>2015-07-01T04:51:04Z</time>
      </trkpt>
      <trkpt lat="42.15309" lon="9.07381">
        <ele>1383.673</ele>
        <time>2015-07-01T04:51:06Z</time>
      </trkpt>
      <trkpt lat="42.15309" lon="9.07381">
        <ele>1385.046</ele>
        <time>2015-07-01T04:51:09Z</time>
      </trkpt>
      <trkpt lat="42.1531" lon="9.07382">
        <ele>1388.266</ele>
        <time>2015-07-01T04:51:16Z</time>
      </trkpt>
      <trkpt lat="42.15311" lon="9.07382">
        <ele>1389.581</ele>
        <time>2015-07-01T04:51:18Z</time>
      </trkpt>
      <trkpt lat="42.15313" lon="9.07383">
        <ele>1392.733</ele>
        <time>2015-07-01T04:51:32Z</time>
      </trkpt>
      <trkpt lat="42.15313" lon="9.07384">
        <ele>1395.926</ele>
        <time>2015-07-01T04:51:50Z</time>
      </trkpt>
      <trkpt lat="42.15313" lon="9.07384">
        <ele>1397.08</ele>
        <time>2015-07-01T04:52:19Z</time>
      </trkpt>
      <trkpt lat="42.1531" lon="9.07378">
        <ele>1397.732</ele>
        <time>2015-07-01T04:52:52Z</time>
      </trkpt>
      <trkpt lat="42.15309" lon="9.07368">
        <ele>1399.214</ele>
        <time>2015-07-01T04:53:06Z</time>
      </trkpt>
      <trkpt lat="42.15308" lon="9.07364">
        <ele>1400.286</ele>
        <time>2015-07-01T04:53:21Z</time>
      </trkpt>
      <trkpt lat="42.15301" lon="9.07361">
        <ele>1403.308</ele>
        <time>2015-07-01T04:53:35Z</time>
      </trkpt>
      <trkpt lat="42.15298" lon="9.07356">
        <ele>1403.097</ele>
        <time>2015-07-01T04:53:50Z</time>
      </trkpt>
      <trkpt lat="42.15299" lon="9.0735">
        <ele>1404.497</ele>
        <time>2015-07-01T04:54:04Z</time>
      </trkpt>
      <trkpt lat="42.15302" lon="9.07345">
        <ele>1404.549</ele>
        <time>2015-07-01T04:54:19Z</time>
      </trkpt>
      <trkpt lat="42.15306" lon="9.07342">
        <ele>1405.93</ele>
        <time>2015-07-01T04:54:34Z</time>
      </trkpt>
      <trkpt lat="42.15311" lon="9.07339">
        <ele>1408.001</ele>
        <time>2015-07-01T04:54:50Z</time>
      </trkpt>
      <trkpt lat="42.15315" lon="9.07335">
        <ele>1409.529</ele>
        <time>2015-07-01T04:55:03Z</time>
      </trkpt>
      <trkpt lat="42.1531" lon="9.07331">
        <ele>1410.237</ele>
        <time>2015-07-01T04:55:15Z</time>
      </trkpt>
      <trkpt lat="42.15306" lon="9.07327">
        <ele>1412.707</ele>
        <time>2015-07-01T04:55:27Z</time>
      </trkpt>
      <trkpt lat="42.15301" lon="9.07322">
        <ele>1414.144</ele>
        <time>2015-07-01T04:55:42Z</time>
      </trkpt>
      <trkpt lat="42.15295" lon="9.07318">
        <ele>1415.749</ele>
        <time>2015-07-01T04:55:57Z</time>
      </trkpt>
      <trkpt lat="42.15294" lon="9.07317">
        <ele>1417.724</ele>
        <time>2015-07-01T04:56:12Z</time>
      </trkpt>
      <trkpt lat="42.15295" lon="9.07314">
        <ele>1419.982</ele>
        <time>2015-07-01T04:56:24Z</time>
      </trkpt>
      <trkpt lat="42.15293" lon="9.07311">
        <ele>1419.946</ele>
        <time>2015-07-01T04:56:39Z</time>
      </trkpt>
      <trkpt lat="42.15288" lon="9.07309">
        <ele>1421.369</ele>
        <time>2015-07-01T04:56:52Z</time>
      </trkpt>
      <trkpt lat="42.15284" lon="9.07307">
        <ele>1422.59</ele>
        <time>2015-07-01T04:57:07Z</time>
      </trkpt>
      <trkpt lat="42.15278" lon="9.07304">
        <ele>1422.874</ele>
        <time>2015-07-01T04:57:23Z</time>
      </trkpt>
      <trkpt lat="42.15272" lon="9.07301">
        <ele>1425.142</ele>
        <time>2015-07-01T04:57:39Z</time>
      </trkpt>
      <trkpt lat="42.15267" lon="9.07297">
        <ele>1425.345</ele>
        <time>2015-07-01T04:57:54Z</time>
      </trkpt>
      <trkpt lat="42.15261" lon="9.07297">
        <ele>1425.983</ele>
        <time>2015-07-01T04:58:08Z</time>
      </trkpt>
      <trkpt lat="42.15259" lon="9.07293">
        <ele>1428.572</ele>
        <time>2015-07-01T04:58:22Z</time>
      </trkpt>
      <trkpt lat="42.15258" lon="9.0729">
        <ele>1431.043</ele>
        <time>2015-07-01T04:58:38Z</time>
      </trkpt>
      <trkpt lat="42.15256" lon="9.07287">
        <ele>1431.278</ele>
        <time>2015-07-01T04:58:52Z</time>
      </trkpt>
      <trkpt lat="42.15253" lon="9.07286">
        <ele>1432.069</ele>
        <time>2015-07-01T04:59:03Z</time>
      </trkpt>
      <trkpt lat="42.15248" lon="9.07284">
        <ele>1434.514</ele>
        <time>2015-07-01T04:59:18Z</time>
      </trkpt>
      <trkpt lat="42.15248" lon="9.07282">
        <ele>1435.532</ele>
        <time>2015-07-01T04:59:29Z</time>
      </trkpt>
      <trkpt lat="42.15245" lon="9.07281">
        <ele>1437.638</ele>
        <time>2015-07-01T04:59:44Z</time>
      </trkpt>
      <trkpt lat="42.15242" lon="9.07278">
        <ele>1439.312</ele>
        <time>2015-07-01T04:59:58Z</time>
      </trkpt>
      <trkpt lat="42.15236" lon="9.07278">
        <ele>1439.332</ele>
        <time>2015-07-01T05:00:14Z</time>
      </trkpt>
      <trkpt lat="42.15236" lon="9.07274">
        <ele>1441.1</ele>
        <time>2015-07-01T05:00:27Z</time>
      </trkpt>
      <trkpt lat="42.15236" lon="9.07272">
        <ele>1442.529</ele>
        <time>2015-07-01T05:00:42Z</time>
      </trkpt>
      <trkpt lat="42.15237" lon="9.0727">
        <ele>1443.061</ele>
        <time>2015-07-01T05:00:54Z</time>
      </trkpt>
      <trkpt lat="42.15238" lon="9.07266">
        <ele>1444.267</ele>
        <time>2015-07-01T05:01:07Z</time>
      </trkpt>
      <trkpt lat="42.15242" lon="9.07264">
        <ele>1445.899</ele>
        <time>2015-07-01T05:01:20Z</time>
      </trkpt>
      <trkpt lat="42.15245" lon="9.0726">
        <ele>1447.72</ele>
        <time>2015-07-01T05:01:35Z</time>
      </trkpt>
      <trkpt lat="42.15249" lon="9.07256">
        <ele>1448.999</ele>
        <time>2015-07-01T05:01:49Z</time>
      </trkpt>
      <trkpt lat="42.15253" lon="9.07253">
        <ele>1450.292</ele>
        <time>2015-07-01T05:02:03Z</time>
      </trkpt>
      <trkpt lat="42.15259" lon="9.07249">
        <ele>1449.802</ele>
        <time>2015-07-01T05:02:18Z</time>
      </trkpt>
      <trkpt lat="42.15263" lon="9.07247">
        <ele>1452.099</ele>
        <time>2015-07-01T05:02:31Z</time>
      </trkpt>
      <trkpt lat="42.15267" lon="9.07242">
        <ele>1453.666</ele>
        <time>2015-07-01T05:02:42Z</time>
      </trkpt>
      <trkpt lat="42.15269" lon="9.07243">
        <ele>1452.87</ele>
        <time>2015-07-01T05:02:58Z</time>
      </trkpt>
      <trkpt lat="42.15274" lon="9.07239">
        <ele>1454.374</ele>
        <time>2015-07-01T05:03:13Z</time>
      </trkpt>
      <trkpt lat="42.15279" lon="9.07237">
        <ele>1456.041</ele>
        <time>2015-07-01T05:03:27Z</time>
      </trkpt>
      <trkpt lat="42.15286" lon="9.07235">
        <ele>1457.439</ele>
        <time>2015-07-01T05:03:42Z</time>
      </trkpt>
      <trkpt lat="42.15289" lon="9.07232">
        <ele>1458.444</ele>
        <time>2015-07-01T05:03:55Z</time>
      </trkpt>
      <trkpt lat="42.15295" lon="9.07228">
        <ele>1460.437</ele>
        <time>2015-07-01T05:04:12Z</time>
      </trkpt>
      <trkpt lat="42.15298" lon="9.07225">
        <ele>1461.849</ele>
        <time>2015-07-01T05:04:25Z</time>
      </trkpt>
      <trkpt lat="42.15301" lon="9.07221">
        <ele>1463.031</ele>
        <time>2015-07-01T05:04:39Z</time>
      </trkpt>
      <trkpt lat="42.15304" lon="9.07216">
        <ele>1464.871</ele>
        <time>2015-07-01T05:04:52Z</time>
      </trkpt>
      <trkpt lat="42.15312" lon="9.07213">
        <ele>1466.528</ele>
        <time>2015-07-01T05:05:10Z</time>
      </trkpt>
      <trkpt lat="42.1532" lon="9.07208">
        <ele>1466.467</ele>
        <time>2015-07-01T05:05:25Z</time>
      </trkpt>
      <trkpt lat="42.15326" lon="9.07206">
        <ele>1467.814</ele>
        <time>2015-07-01T05:05:39Z</time>
      </trkpt>
      <trkpt lat="42.15331" lon="9.07199">
        <ele>1470.592</ele>
        <time>2015-07-01T05:05:54Z</time>
      </trkpt>
      <trkpt lat="42.15337" lon="9.07196">
        <ele>1471.291</ele>
        <time>2015-07-01T05:06:08Z</time>
      </trkpt>
      <trkpt lat="42.15343" lon="9.07192">
        <ele>1474.033</ele>
        <time>2015-07-01T05:06:25Z</time>
      </trkpt>
      <trkpt lat="42.15352" lon="9.07187">
        <ele>1475.204</ele>
        <time>2015-07-01T05:06:42Z</time>
      </trkpt>
      <trkpt lat="42.15357" lon="9.07182">
        <ele>1477.738</ele>
        <time>2015-07-01T05:06:56Z</time>
      </trkpt>
      <trkpt lat="42.15359" lon="9.07176">
        <ele>1478.779</ele>
        <time>2015-07-01T05:07:08Z</time>
      </trkpt>
      <trkpt lat="42.15353" lon="9.07166">
        <ele>1479.992</ele>
        <time>2015-07-01T05:07:24Z</time>
      </trkpt>
      <trkpt lat="42.15347" lon="9.07159">
        <ele>1479.902</ele>
        <time>2015-07-01T05:07:37Z</time>
      </trkpt>
      <trkpt lat="42.1534" lon="9.0715">
        <ele>1480.367</ele>
        <time>2015-07-01T05:07:53Z</time>
      </trkpt>
      <trkpt lat="42.15334" lon="9.07149">
        <ele>1482.061</ele>
        <time>2015-07-01T05:08:06Z</time>
      </trkpt>
      <trkpt lat="42.15326" lon="9.07144">
        <ele>1482.496</ele>
        <time>2015-07-01T05:08:20Z</time>
      </trkpt>
      <trkpt lat="42.15318" lon="9.0714">
        <ele>1484.035</ele>
        <time>2015-07-01T05:08:34Z</time>
      </trkpt>
      <trkpt lat="42.15309" lon="9.07139">
        <ele>1485.379</ele>
        <time>2015-07-01T05:08:50Z</time>
      </trkpt>
      <trkpt lat="42.15297" lon="9.07139">
        <ele>1486.429</ele>
        <time>2015-07-01T05:09:08Z</time>
      </trkpt>
      <trkpt lat="42.15282" lon="9.07147">
        <ele>1486.735</ele>
        <time>2015-07-01T05:09:28Z</time>
      </trkpt>
      <trkpt lat="42.15269" lon="9.0715">
        <ele>1487.592</ele>
        <time>2015-07-01T05:09:46Z</time>
      </trkpt>
      <trkpt lat="42.15263" lon="9.07145">
        <ele>1489.718</ele>
        <time>2015-07-01T05:10:01Z</time>
      </trkpt>
      <trkpt lat="42.15255" lon="9.07144">
        <ele>1491.761</ele>
        <time>2015-07-01T05:10:16Z</time>
      </trkpt>
      <trkpt lat="42.15251" lon="9.07139">
        <ele>1493.278</ele>
        <time>2015-07-01T05:10:29Z</time>
      </trkpt>
      <trkpt lat="42.15248" lon="9.07135">
        <ele>1495.033</ele>
        <time>2015-07-01T05:10:44Z</time>
      </trkpt>
      <trkpt lat="42.15242" lon="9.07132">
        <ele>1495.224</ele>
        <time>2015-07-01T05:10:58Z</time>
      </trkpt>
      <trkpt lat="42.15239" lon="9.07131">
        <ele>1498.563</ele>
        <time>2015-07-01T05:11:06Z</time>
      </trkpt>
      <trkpt lat="42.15236" lon="9.07127">
        <ele>1498.67</ele>
        <time>2015-07-01T05:11:21Z</time>
      </trkpt>
      <trkpt lat="42.15231" lon="9.07124">
        <ele>1501.291</ele>
        <time>2015-07-01T05:11:35Z</time>
      </trkpt>
      <trkpt lat="42.15225" lon="9.07121">
        <ele>1502.18</ele>
        <time>2015-07-01T05:11:51Z</time>
      </trkpt>
      <trkpt lat="42.1522" lon="9.0712">
        <ele>1504.177</ele>
        <time>2015-07-01T05:12:06Z</time>
      </trkpt>
      <trkpt lat="42.15214" lon="9.07118">
        <ele>1506.174</ele>
        <time>2015-07-01T05:12:20Z</time>
      </trkpt>
      <trkpt lat="42.15207" lon="9.07116">
        <ele>1507.664</ele>
        <time>2015-07-01T05:12:36Z</time>
      </trkpt>
      <trkpt lat="42.15205" lon="9.07113">
        <ele>1509.298</ele>
        <time>2015-07-01T05:12:49Z</time>
      </trkpt>
      <trkpt lat="42.152" lon="9.0711">
        <ele>1510.458</ele>
        <time>2015-07-01T05:13:04Z</time>
      </trkpt>
      <trkpt lat="42.15197" lon="9.07106">
        <ele>1512.544</ele>
        <time>2015-07-01T05:13:18Z</time>
      </trkpt>
      <trkpt lat="42.15195" lon="9.07102">
        <ele>1514.343</ele>
        <time>2015-07-01T05:13:34Z</time>
      </trkpt>
      <trkpt lat="42.1519" lon="9.07099">
        <ele>1515.731</ele>
        <time>2015-07-01T05:13:49Z</time>
      </trkpt>
      <trkpt lat="42.15184" lon="9.07095">
        <ele>1517.56</ele>
        <time>2015-07-01T05:14:04Z</time>
      </trkpt>
      <trkpt lat="42.15177" lon="9.07093">
        <ele>1519.234</ele>
        <time>2015-07-01T05:14:21Z</time>
      </trkpt>
      <trkpt lat="42.15175" lon="9.07089">
        <ele>1521.554</ele>
        <time>2015-07-01T05:14:36Z</time>
      </trkpt>
      <trkpt lat="42.1517" lon="9.07089">
        <ele>1522.187</ele>
        <time>2015-07-01T05:14:50Z</time>
      </trkpt>
      <trkpt lat="42.15167" lon="9.07085">
        <ele>1525.496</ele>
        <time>2015-07-01T05:15:04Z</time>
      </trkpt>
      <trkpt lat="42.15167" lon="9.07085">
        <ele>1525.717</ele>
        <time>2015-07-01T05:15:05Z</time>
      </trkpt>
      <trkpt lat="42.15166" lon="9.07078">
        <ele>1525.877</ele>
        <time>2015-07-01T05:15:21Z</time>
      </trkpt>
      <trkpt lat="42.15165" lon="9.07073">
        <ele>1529.041</ele>
        <time>2015-07-01T05:15:34Z</time>
      </trkpt>
      <trkpt lat="42.1516" lon="9.07066">
        <ele>1529.978</ele>
        <time>2015-07-01T05:15:50Z</time>
      </trkpt>
      <trkpt lat="42.15156" lon="9.07058">
        <ele>1531.166</ele>
        <time>2015-07-01T05:16:06Z</time>
      </trkpt>
      <trkpt lat="42.15152" lon="9.0706">
        <ele>1533.147</ele>
        <time>2015-07-01T05:16:23Z</time>
      </trkpt>
      <trkpt lat="42.15145" lon="9.07062">
        <ele>1535.585</ele>
        <time>2015-07-01T05:16:41Z</time>
      </trkpt>
      <trkpt lat="42.15139" lon="9.07062">
        <ele>1536.564</ele>
        <time>2015-07-01T05:16:55Z</time>
      </trkpt>
      <trkpt lat="42.15133" lon="9.07065">
        <ele>1538.173</ele>
        <time>2015-07-01T05:17:10Z</time>
      </trkpt>
      <trkpt lat="42.15129" lon="9.07068">
        <ele>1539.734</ele>
        <time>2015-07-01T05:17:24Z</time>
      </trkpt>
      <trkpt lat="42.15124" lon="9.0707">
        <ele>1541.474</ele>
        <time>2015-07-01T05:17:40Z</time>
      </trkpt>
      <trkpt lat="42.15121" lon="9.07066">
        <ele>1543.854</ele>
        <time>2015-07-01T05:17:55Z</time>
      </trkpt>
      <trkpt lat="42.15117" lon="9.07064">
        <ele>1545.054</ele>
        <time>2015-07-01T05:18:09Z</time>
      </trkpt>
      <trkpt lat="42.15113" lon="9.07062">
        <ele>1546.293</ele>
        <time>2015-07-01T05:18:23Z</time>
      </trkpt>
      <trkpt lat="42.15108" lon="9.07061">
        <ele>1547.939</ele>
        <time>2015-07-01T05:18:38Z</time>
      </trkpt>
      <trkpt lat="42.15105" lon="9.0706">
        <ele>1549.205</ele>
        <time>2015-07-01T05:18:53Z</time>
      </trkpt>
      <trkpt lat="42.15101" lon="9.07061">
        <ele>1550.783</ele>
        <time>2015-07-01T05:19:07Z</time>
      </trkpt>
      <trkpt lat="42.15096" lon="9.0706">
        <ele>1552.483</ele>
        <time>2015-07-01T05:19:21Z</time>
      </trkpt>
      <trkpt lat="42.15091" lon="9.07057">
        <ele>1553.109</ele>
        <time>2015-07-01T05:19:36Z</time>
      </trkpt>
      <trkpt lat="42.15087" lon="9.07054">
        <ele>1554.724</ele>
        <time>2015-07-01T05:19:50Z</time>
      </trkpt>
      <trkpt lat="42.15083" lon="9.07048">
        <ele>1556.53</ele>
        <time>2015-07-01T05:20:05Z</time>
      </trkpt>
      <trkpt lat="42.15078" lon="9.07046">
        <ele>1557.843</ele>
        <time>2015-07-01T05:20:20Z</time>
      </trkpt>
      <trkpt lat="42.15074" lon="9.07049">
        <ele>1559.298</ele>
        <time>2015-07-01T05:20:35Z</time>
      </trkpt>
      <trkpt lat="42.15069" lon="9.07052">
        <ele>1561.26</ele>
        <time>2015-07-01T05:20:49Z</time>
      </trkpt>
      <trkpt lat="42.15063" lon="9.07051">
        <ele>1562.759</ele>
        <time>2015-07-01T05:21:05Z</time>
      </trkpt>
      <trkpt lat="42.15058" lon="9.07047">
        <ele>1564.648</ele>
        <time>2015-07-01T05:21:22Z</time>
      </trkpt>
      <trkpt lat="42.15053" lon="9.07046">
        <ele>1565.453</ele>
        <time>2015-07-01T05:21:35Z</time>
      </trkpt>
      <trkpt lat="42.15048" lon="9.07045">
        <ele>1567.319</ele>
        <time>2015-07-01T05:21:53Z</time>
      </trkpt>
      <trkpt lat="42.15045" lon="9.07048">
        <ele>1569.917</ele>
        <time>2015-07-01T05:22:08Z</time>
      </trkpt>
      <trkpt lat="42.15041" lon="9.0705">
        <ele>1571.6</ele>
        <time>2015-07-01T05:22:22Z</time>
      </trkpt>
      <trkpt lat="42.15037" lon="9.07053">
        <ele>1572.891</ele>
        <time>2015-07-01T05:22:44Z</time>
      </trkpt>
      <trkpt lat="42.15034" lon="9.07054">
        <ele>1573.49</ele>
        <time>2015-07-01T05:22:56Z</time>
      </trkpt>
      <trkpt lat="42.15031" lon="9.07056">
        <ele>1574.407</ele>
        <time>2015-07-01T05:23:10Z</time>
      </trkpt>
      <trkpt lat="42.15028" lon="9.07056">
        <ele>1576.839</ele>
        <time>2015-07-01T05:23:24Z</time>
      </trkpt>
      <trkpt lat="42.15026" lon="9.07055">
        <ele>1577.678</ele>
        <time>2015-07-01T05:23:36Z</time>
      </trkpt>
      <trkpt lat="42.15023" lon="9.07053">
        <ele>1580.148</ele>
        <time>2015-07-01T05:23:52Z</time>
      </trkpt>
      <trkpt lat="42.1502" lon="9.07053">
        <ele>1582.283</ele>
        <time>2015-07-01T05:24:07Z</time>
      </trkpt>
      <trkpt lat="42.15016" lon="9.0705">
        <ele>1582.976</ele>
        <time>2015-07-01T05:24:24Z</time>
      </trkpt>
      <trkpt lat="42.15013" lon="9.0705">
        <ele>1584.429</ele>
        <time>2015-07-01T05:24:36Z</time>
      </trkpt>
      <trkpt lat="42.1501" lon="9.07048">
        <ele>1586.275</ele>
        <time>2015-07-01T05:24:51Z</time>
      </trkpt>
      <trkpt lat="42.15005" lon="9.07045">
        <ele>1587.548</ele>
        <time>2015-07-01T05:25:04Z</time>
      </trkpt>
      <trkpt lat="42.15001" lon="9.07046">
        <ele>1589.414</ele>
        <time>2015-07-01T05:25:19Z</time>
      </trkpt>
      <trkpt lat="42.15" lon="9.07043">
        <ele>1590.679</ele>
        <time>2015-07-01T05:25:32Z</time>
      </trkpt>
      <trkpt lat="42.14997" lon="9.07044">
        <ele>1591.604</ele>
        <time>2015-07-01T05:25:43Z</time>
      </trkpt>
      <trkpt lat="42.14993" lon="9.07042">
        <ele>1592.521</ele>
        <time>2015-07-01T05:25:56Z</time>
      </trkpt>
      <trkpt lat="42.14986" lon="9.07037">
        <ele>1594.006</ele>
        <time>2015-07-01T05:26:13Z</time>
      </trkpt>
      <trkpt lat="42.14977" lon="9.07039">
        <ele>1595.493</ele>
        <time>2015-07-01T05:26:30Z</time>
      </trkpt>
      <trkpt lat="42.14973" lon="9.07045">
        <ele>1596.873</ele>
        <time>2015-07-01T05:26:45Z</time>
      </trkpt>
      <trkpt lat="42.14968" lon="9.0705">
        <ele>1599.356</ele>
        <time>2015-07-01T05:27:01Z</time>
      </trkpt>
      <trkpt lat="42.14961" lon="9.07053">
        <ele>1601.527</ele>
        <time>2015-07-01T05:27:17Z</time>
      </trkpt>
      <trkpt lat="42.14952" lon="9.07057">
        <ele>1602.703</ele>
        <time>2015-07-01T05:27:34Z</time>
      </trkpt>
      <trkpt lat="42.1495" lon="9.07059">
        <ele>1602.698</ele>
        <time>2015-07-01T05:27:50Z</time>
      </trkpt>
      <trkpt lat="42.14945" lon="9.07059">
        <ele>1603.478</ele>
        <time>2015-07-01T05:28:32Z</time>
      </trkpt>
      <trkpt lat="42.1494" lon="9.07063">
        <ele>1605.125</ele>
        <time>2015-07-01T05:28:45Z</time>
      </trkpt>
      <trkpt lat="42.14934" lon="9.07064">
        <ele>1605.86</ele>
        <time>2015-07-01T05:28:58Z</time>
      </trkpt>
      <trkpt lat="42.14929" lon="9.07068">
        <ele>1607.127</ele>
        <time>2015-07-01T05:29:10Z</time>
      </trkpt>
      <trkpt lat="42.14923" lon="9.07069">
        <ele>1607.336</ele>
        <time>2015-07-01T05:29:23Z</time>
      </trkpt>
      <trkpt lat="42.14913" lon="9.07067">
        <ele>1607.685</ele>
        <time>2015-07-01T05:29:38Z</time>
      </trkpt>
      <trkpt lat="42.14904" lon="9.07069">
        <ele>1608.586</ele>
        <time>2015-07-01T05:29:55Z</time>
      </trkpt>
      <trkpt lat="42.149" lon="9.07071">
        <ele>1609.324</ele>
        <time>2015-07-01T05:30:10Z</time>
      </trkpt>
      <trkpt lat="42.14898" lon="9.07075">
        <ele>1611.587</ele>
        <time>2015-07-01T05:30:24Z</time>
      </trkpt>
      <trkpt lat="42.14894" lon="9.07076">
        <ele>1612.63</ele>
        <time>2015-07-01T05:30:38Z</time>
      </trkpt>
      <trkpt lat="42.14892" lon="9.07081">
        <ele>1615.104</ele>
        <time>2015-07-01T05:30:53Z</time>
      </trkpt>
      <trkpt lat="42.14891" lon="9.07086">
        <ele>1616.912</ele>
        <time>2015-07-01T05:31:07Z</time>
      </trkpt>
      <trkpt lat="42.14887" lon="9.07089">
        <ele>1617.761</ele>
        <time>2015-07-01T05:31:20Z</time>
      </trkpt>
      <trkpt lat="42.14884" lon="9.07091">
        <ele>1619.177</ele>
        <time>2015-07-01T05:31:30Z</time>
      </trkpt>
      <trkpt lat="42.1488" lon="9.07094">
        <ele>1620.236</ele>
        <time>2015-07-01T05:31:43Z</time>
      </trkpt>
      <trkpt lat="42.14878" lon="9.07092">
        <ele>1620.622</ele>
        <time>2015-07-01T05:32:05Z</time>
      </trkpt>
      <trkpt lat="42.14871" lon="9.07095">
        <ele>1622.564</ele>
        <time>2015-07-01T05:32:23Z</time>
      </trkpt>
      <trkpt lat="42.14868" lon="9.07093">
        <ele>1623.608</ele>
        <time>2015-07-01T05:32:36Z</time>
      </trkpt>
      <trkpt lat="42.14868" lon="9.07094">
        <ele>1623.918</ele>
        <time>2015-07-01T05:32:38Z</time>
      </trkpt>
      <trkpt lat="42.14865" lon="9.07091">
        <ele>1625.221</ele>
        <time>2015-07-01T05:32:50Z</time>
      </trkpt>
      <trkpt lat="42.14864" lon="9.07089">
        <ele>1626.693</ele>
        <time>2015-07-01T05:33:01Z</time>
      </trkpt>
      <trkpt lat="42.14863" lon="9.07094">
        <ele>1627.322</ele>
        <time>2015-07-01T05:33:12Z</time>
      </trkpt>
      <trkpt lat="42.14861" lon="9.07095">
        <ele>1627.709</ele>
        <time>2015-07-01T05:33:24Z</time>
      </trkpt>
      <trkpt lat="42.14861" lon="9.07099">
        <ele>1629.951</ele>
        <time>2015-07-01T05:33:38Z</time>
      </trkpt>
      <trkpt lat="42.1486" lon="9.07103">
        <ele>1631.792</ele>
        <time>2015-07-01T05:33:51Z</time>
      </trkpt>
      <trkpt lat="42.1486" lon="9.07104">
        <ele>1632.458</ele>
        <time>2015-07-01T05:34:03Z</time>
      </trkpt>
      <trkpt lat="42.14856" lon="9.07104">
        <ele>1633.587</ele>
        <time>2015-07-01T05:34:16Z</time>
      </trkpt>
      <trkpt lat="42.14854" lon="9.07109">
        <ele>1635.209</ele>
        <time>2015-07-01T05:34:33Z</time>
      </trkpt>
      <trkpt lat="42.14849" lon="9.0711">
        <ele>1635.463</ele>
        <time>2015-07-01T05:34:48Z</time>
      </trkpt>
      <trkpt lat="42.14845" lon="9.07108">
        <ele>1635.761</ele>
        <time>2015-07-01T05:35:01Z</time>
      </trkpt>
      <trkpt lat="42.1484" lon="9.07107">
        <ele>1636.153</ele>
        <time>2015-07-01T05:35:16Z</time>
      </trkpt>
      <trkpt lat="42.14838" lon="9.07111">
        <ele>1638.368</ele>
        <time>2015-07-01T05:35:30Z</time>
      </trkpt>
      <trkpt lat="42.14838" lon="9.07117">
        <ele>1639.691</ele>
        <time>2015-07-01T05:35:43Z</time>
      </trkpt>
      <trkpt lat="42.14834" lon="9.07117">
        <ele>1641.736</ele>
        <time>2015-07-01T05:35:57Z</time>
      </trkpt>
      <trkpt lat="42.14829" lon="9.07118">
        <ele>1642.578</ele>
        <time>2015-07-01T05:36:10Z</time>
      </trkpt>
      <trkpt lat="42.14825" lon="9.07116">
        <ele>1643.368</ele>
        <time>2015-07-01T05:36:25Z</time>
      </trkpt>
      <trkpt lat="42.14822" lon="9.07117">
        <ele>1644.606</ele>
        <time>2015-07-01T05:36:39Z</time>
      </trkpt>
      <trkpt lat="42.1482" lon="9.0712">
        <ele>1645.658</ele>
        <time>2015-07-01T05:36:51Z</time>
      </trkpt>
      <trkpt lat="42.14816" lon="9.07119">
        <ele>1648.013</ele>
        <time>2015-07-01T05:37:08Z</time>
      </trkpt>
      <trkpt lat="42.14813" lon="9.07122">
        <ele>1649.113</ele>
        <time>2015-07-01T05:37:19Z</time>
      </trkpt>
      <trkpt lat="42.14811" lon="9.07127">
        <ele>1650.685</ele>
        <time>2015-07-01T05:37:33Z</time>
      </trkpt>
      <trkpt lat="42.14806" lon="9.07131">
        <ele>1651.522</ele>
        <time>2015-07-01T05:37:47Z</time>
      </trkpt>
      <trkpt lat="42.14796" lon="9.07134">
        <ele>1652.729</ele>
        <time>2015-07-01T05:38:03Z</time>
      </trkpt>
      <trkpt lat="42.14787" lon="9.07136">
        <ele>1653.545</ele>
        <time>2015-07-01T05:38:20Z</time>
      </trkpt>
      <trkpt lat="42.1478" lon="9.07136">
        <ele>1654.929</ele>
        <time>2015-07-01T05:38:34Z</time>
      </trkpt>
      <trkpt lat="42.14775" lon="9.07136">
        <ele>1655.735</ele>
        <time>2015-07-01T05:38:48Z</time>
      </trkpt>
      <trkpt lat="42.1477" lon="9.07137">
        <ele>1657.94</ele>
        <time>2015-07-01T05:39:03Z</time>
      </trkpt>
      <trkpt lat="42.14767" lon="9.07141">
        <ele>1659.433</ele>
        <time>2015-07-01T05:39:17Z</time>
      </trkpt>
      <trkpt lat="42.14763" lon="9.07139">
        <ele>1661.459</ele>
        <time>2015-07-01T05:39:32Z</time>
      </trkpt>
      <trkpt lat="42.14757" lon="9.07141">
        <ele>1662.359</ele>
        <time>2015-07-01T05:39:49Z</time>
      </trkpt>
      <trkpt lat="42.14754" lon="9.07142">
        <ele>1663.719</ele>
        <time>2015-07-01T05:40:04Z</time>
      </trkpt>
      <trkpt lat="42.14751" lon="9.07143">
        <ele>1665.828</ele>
        <time>2015-07-01T05:40:18Z</time>
      </trkpt>
      <trkpt lat="42.14749" lon="9.07144">
        <ele>1666.828</ele>
        <time>2015-07-01T05:40:30Z</time>
      </trkpt>
      <trkpt lat="42.14747" lon="9.07146">
        <ele>1667.597</ele>
        <time>2015-07-01T05:40:43Z</time>
      </trkpt>
      <trkpt lat="42.14749" lon="9.07151">
        <ele>1669.109</ele>
        <time>2015-07-01T05:40:55Z</time>
      </trkpt>
      <trkpt lat="42.14747" lon="9.07154">
        <ele>1669.786</ele>
        <time>2015-07-01T05:41:08Z</time>
      </trkpt>
      <trkpt lat="42.14745" lon="9.07154">
        <ele>1671.724</ele>
        <time>2015-07-01T05:41:21Z</time>
      </trkpt>
      <trkpt lat="42.14745" lon="9.07157">
        <ele>1672.819</ele>
        <time>2015-07-01T05:41:35Z</time>
      </trkpt>
      <trkpt lat="42.14746" lon="9.0716">
        <ele>1673.608</ele>
        <time>2015-07-01T05:41:47Z</time>
      </trkpt>
      <trkpt lat="42.14746" lon="9.07162">
        <ele>1674.726</ele>
        <time>2015-07-01T05:42:00Z</time>
      </trkpt>
      <trkpt lat="42.14745" lon="9.07163">
        <ele>1675.693</ele>
        <time>2015-07-01T05:42:12Z</time>
      </trkpt>
      <trkpt lat="42.14743" lon="9.07163">
        <ele>1676.638</ele>
        <time>2015-07-01T05:42:26Z</time>
      </trkpt>
      <trkpt lat="42.14737" lon="9.07162">
        <ele>1678.22</ele>
        <time>2015-07-01T05:42:43Z</time>
      </trkpt>
      <trkpt lat="42.14733" lon="9.07164">
        <ele>1679.195</ele>
        <time>2015-07-01T05:42:56Z</time>
      </trkpt>
      <trkpt lat="42.1473" lon="9.07166">
        <ele>1681.544</ele>
        <time>2015-07-01T05:43:09Z</time>
      </trkpt>
      <trkpt lat="42.14728" lon="9.07167">
        <ele>1683.351</ele>
        <time>2015-07-01T05:43:24Z</time>
      </trkpt>
      <trkpt lat="42.14725" lon="9.07168">
        <ele>1684.914</ele>
        <time>2015-07-01T05:43:35Z</time>
      </trkpt>
      <trkpt lat="42.14721" lon="9.0717">
        <ele>1686.332</ele>
        <time>2015-07-01T05:43:49Z</time>
      </trkpt>
      <trkpt lat="42.1472" lon="9.07172">
        <ele>1687.392</ele>
        <time>2015-07-01T05:44:04Z</time>
      </trkpt>
      <trkpt lat="42.14719" lon="9.07174">
        <ele>1688.209</ele>
        <time>2015-07-01T05:44:16Z</time>
      </trkpt>
      <trkpt lat="42.14719" lon="9.07179">
        <ele>1689.507</ele>
        <time>2015-07-01T05:44:30Z</time>
      </trkpt>
      <trkpt lat="42.14717" lon="9.0718">
        <ele>1690.962</ele>
        <time>2015-07-01T05:44:44Z</time>
      </trkpt>
      <trkpt lat="42.14717" lon="9.07181">
        <ele>1692.383</ele>
        <time>2015-07-01T05:44:57Z</time>
      </trkpt>
      <trkpt lat="42.14714" lon="9.07182">
        <ele>1694.389</ele>
        <time>2015-07-01T05:45:22Z</time>
      </trkpt>
      <trkpt lat="42.14712" lon="9.07184">
        <ele>1695.969</ele>
        <time>2015-07-01T05:45:35Z</time>
      </trkpt>
      <trkpt lat="42.1471" lon="9.07189">
        <ele>1697.211</ele>
        <time>2015-07-01T05:45:48Z</time>
      </trkpt>
      <trkpt lat="42.14708" lon="9.07191">
        <ele>1698.866</ele>
        <time>2015-07-01T05:46:02Z</time>
      </trkpt>
      <trkpt lat="42.14706" lon="9.07195">
        <ele>1700.761</ele>
        <time>2015-07-01T05:46:14Z</time>
      </trkpt>
      <trkpt lat="42.14703" lon="9.07197">
        <ele>1701.744</ele>
        <time>2015-07-01T05:46:27Z</time>
      </trkpt>
      <trkpt lat="42.14701" lon="9.072">
        <ele>1703.62</ele>
        <time>2015-07-01T05:46:40Z</time>
      </trkpt>
      <trkpt lat="42.147" lon="9.07202">
        <ele>1704.054</ele>
        <time>2015-07-01T05:46:50Z</time>
      </trkpt>
      <trkpt lat="42.14696" lon="9.07203">
        <ele>1705.936</ele>
        <time>2015-07-01T05:47:04Z</time>
      </trkpt>
      <trkpt lat="42.14692" lon="9.07205">
        <ele>1706.893</ele>
        <time>2015-07-01T05:47:17Z</time>
      </trkpt>
      <trkpt lat="42.14689" lon="9.07207">
        <ele>1708.771</ele>
        <time>2015-07-01T05:47:30Z</time>
      </trkpt>
      <trkpt lat="42.14686" lon="9.0721">
        <ele>1710.399</ele>
        <time>2015-07-01T05:47:45Z</time>
      </trkpt>
      <trkpt lat="42.14682" lon="9.07212">
        <ele>1712.295</ele>
        <time>2015-07-01T05:48:02Z</time>
      </trkpt>
      <trkpt lat="42.14678" lon="9.07213">
        <ele>1713.356</ele>
        <time>2015-07-01T05:48:18Z</time>
      </trkpt>
      <trkpt lat="42.14676" lon="9.07215">
        <ele>1715.109</ele>
        <time>2015-07-01T05:48:32Z</time>
      </trkpt>
      <trkpt lat="42.14672" lon="9.07218">
        <ele>1716.781</ele>
        <time>2015-07-01T05:48:50Z</time>
      </trkpt>
      <trkpt lat="42.14669" lon="9.0722">
        <ele>1718.044</ele>
        <time>2015-07-01T05:49:05Z</time>
      </trkpt>
      <trkpt lat="42.14668" lon="9.0722">
        <ele>1717.897</ele>
        <time>2015-07-01T05:49:55Z</time>
      </trkpt>
      <trkpt lat="42.14666" lon="9.07223">
        <ele>1720.503</ele>
        <time>2015-07-01T05:50:10Z</time>
      </trkpt>
      <trkpt lat="42.14661" lon="9.07225">
        <ele>1722.817</ele>
        <time>2015-07-01T05:50:27Z</time>
      </trkpt>
      <trkpt lat="42.14656" lon="9.07226">
        <ele>1724.643</ele>
        <time>2015-07-01T05:50:42Z</time>
      </trkpt>
      <trkpt lat="42.14653" lon="9.07228">
        <ele>1725.839</ele>
        <time>2015-07-01T05:50:57Z</time>
      </trkpt>
      <trkpt lat="42.14648" lon="9.07228">
        <ele>1727.618</ele>
        <time>2015-07-01T05:51:12Z</time>
      </trkpt>
      <trkpt lat="42.14645" lon="9.0723">
        <ele>1728.612</ele>
        <time>2015-07-01T05:51:24Z</time>
      </trkpt>
      <trkpt lat="42.1464" lon="9.07229">
        <ele>1730.143</ele>
        <time>2015-07-01T05:51:40Z</time>
      </trkpt>
      <trkpt lat="42.14633" lon="9.07227">
        <ele>1731.86</ele>
        <time>2015-07-01T05:51:58Z</time>
      </trkpt>
      <trkpt lat="42.14628" lon="9.07225">
        <ele>1733.641</ele>
        <time>2015-07-01T05:52:14Z</time>
      </trkpt>
      <trkpt lat="42.14624" lon="9.07225">
        <ele>1734.505</ele>
        <time>2015-07-01T05:52:28Z</time>
      </trkpt>
      <trkpt lat="42.1462" lon="9.07225">
        <ele>1735.764</ele>
        <time>2015-07-01T05:52:41Z</time>
      </trkpt>
      <trkpt lat="42.14616" lon="9.07226">
        <ele>1737.263</ele>
        <time>2015-07-01T05:52:54Z</time>
      </trkpt>
      <trkpt lat="42.14612" lon="9.07227">
        <ele>1738.868</ele>
        <time>2015-07-01T05:53:07Z</time>
      </trkpt>
      <trkpt lat="42.14613" lon="9.07232">
        <ele>1740.986</ele>
        <time>2015-07-01T05:53:21Z</time>
      </trkpt>
      <trkpt lat="42.14613" lon="9.07234">
        <ele>1741.741</ele>
        <time>2015-07-01T05:53:25Z</time>
      </trkpt>
      <trkpt lat="42.14613" lon="9.0724">
        <ele>1743.226</ele>
        <time>2015-07-01T05:53:41Z</time>
      </trkpt>
      <trkpt lat="42.14613" lon="9.07245">
        <ele>1744.633</ele>
        <time>2015-07-01T05:53:54Z</time>
      </trkpt>
      <trkpt lat="42.14613" lon="9.0725">
        <ele>1746.53</ele>
        <time>2015-07-01T05:54:09Z</time>
      </trkpt>
      <trkpt lat="42.14613" lon="9.07255">
        <ele>1747.126</ele>
        <time>2015-07-01T05:54:23Z</time>
      </trkpt>
      <trkpt lat="42.14613" lon="9.07257">
        <ele>1748.596</ele>
        <time>2015-07-01T05:54:37Z</time>
      </trkpt>
      <trkpt lat="42.14613" lon="9.07259">
        <ele>1750.132</ele>
        <time>2015-07-01T05:54:53Z</time>
      </trkpt>
      <trkpt lat="42.14614" lon="9.07266">
        <ele>1751.93</ele>
        <time>2015-07-01T05:55:07Z</time>
      </trkpt>
      <trkpt lat="42.14619" lon="9.07277">
        <ele>1752.87</ele>
        <time>2015-07-01T05:55:22Z</time>
      </trkpt>
      <trkpt lat="42.14621" lon="9.07286">
        <ele>1754.788</ele>
        <time>2015-07-01T05:55:38Z</time>
      </trkpt>
      <trkpt lat="42.14617" lon="9.07286">
        <ele>1755.918</ele>
        <time>2015-07-01T05:55:53Z</time>
      </trkpt>
      <trkpt lat="42.14613" lon="9.07283">
        <ele>1756.694</ele>
        <time>2015-07-01T05:56:07Z</time>
      </trkpt>
      <trkpt lat="42.14609" lon="9.07282">
        <ele>1759.948</ele>
        <time>2015-07-01T05:56:21Z</time>
      </trkpt>
      <trkpt lat="42.14608" lon="9.07284">
        <ele>1760.439</ele>
        <time>2015-07-01T05:56:34Z</time>
      </trkpt>
      <trkpt lat="42.14606" lon="9.07286">
        <ele>1761.444</ele>
        <time>2015-07-01T05:56:47Z</time>
      </trkpt>
      <trkpt lat="42.14606" lon="9.07289">
        <ele>1761.914</ele>
        <time>2015-07-01T05:57:02Z</time>
      </trkpt>
      <trkpt lat="42.14606" lon="9.07291">
        <ele>1763.405</ele>
        <time>2015-07-01T05:57:09Z</time>
      </trkpt>
      <trkpt lat="42.14605" lon="9.07295">
        <ele>1764.258</ele>
        <time>2015-07-01T05:57:22Z</time>
      </trkpt>
      <trkpt lat="42.14603" lon="9.07297">
        <ele>1766.163</ele>
        <time>2015-07-01T05:57:38Z</time>
      </trkpt>
      <trkpt lat="42.14601" lon="9.07299">
        <ele>1767.085</ele>
        <time>2015-07-01T05:57:52Z</time>
      </trkpt>
      <trkpt lat="42.14598" lon="9.073">
        <ele>1768.745</ele>
        <time>2015-07-01T05:58:07Z</time>
      </trkpt>
      <trkpt lat="42.14597" lon="9.07304">
        <ele>1769.373</ele>
        <time>2015-07-01T05:58:20Z</time>
      </trkpt>
      <trkpt lat="42.14596" lon="9.07305">
        <ele>1770.479</ele>
        <time>2015-07-01T05:58:36Z</time>
      </trkpt>
      <trkpt lat="42.14594" lon="9.07306">
        <ele>1773.417</ele>
        <time>2015-07-01T05:58:50Z</time>
      </trkpt>
      <trkpt lat="42.14594" lon="9.07312">
        <ele>1774.801</ele>
        <time>2015-07-01T05:59:05Z</time>
      </trkpt>
      <trkpt lat="42.14591" lon="9.0731">
        <ele>1776.461</ele>
        <time>2015-07-01T05:59:21Z</time>
      </trkpt>
      <trkpt lat="42.14587" lon="9.07307">
        <ele>1776.652</ele>
        <time>2015-07-01T05:59:35Z</time>
      </trkpt>
      <trkpt lat="42.14581" lon="9.07303">
        <ele>1777.222</ele>
        <time>2015-07-01T05:59:50Z</time>
      </trkpt>
      <trkpt lat="42.1458" lon="9.07309">
        <ele>1777.975</ele>
        <time>2015-07-01T06:00:04Z</time>
      </trkpt>
      <trkpt lat="42.14575" lon="9.0731">
        <ele>1778.874</ele>
        <time>2015-07-01T06:00:18Z</time>
      </trkpt>
      <trkpt lat="42.14573" lon="9.07306">
        <ele>1780.622</ele>
        <time>2015-07-01T06:00:32Z</time>
      </trkpt>
      <trkpt lat="42.1457" lon="9.07305">
        <ele>1783.171</ele>
        <time>2015-07-01T06:00:43Z</time>
      </trkpt>
      <trkpt lat="42.14567" lon="9.07305">
        <ele>1783.794</ele>
        <time>2015-07-01T06:00:55Z</time>
      </trkpt>
      <trkpt lat="42.14563" lon="9.07302">
        <ele>1785.427</ele>
        <time>2015-07-01T06:01:09Z</time>
      </trkpt>
      <trkpt lat="42.1456" lon="9.07301">
        <ele>1786.397</ele>
        <time>2015-07-01T06:01:24Z</time>
      </trkpt>
      <trkpt lat="42.14557" lon="9.07301">
        <ele>1788.12</ele>
        <time>2015-07-01T06:01:36Z</time>
      </trkpt>
      <trkpt lat="42.14552" lon="9.07296">
        <ele>1790.699</ele>
        <time>2015-07-01T06:01:53Z</time>
      </trkpt>
      <trkpt lat="42.14548" lon="9.07292">
        <ele>1791.255</ele>
        <time>2015-07-01T06:02:09Z</time>
      </trkpt>
      <trkpt lat="42.14546" lon="9.07294">
        <ele>1792.434</ele>
        <time>2015-07-01T06:02:24Z</time>
      </trkpt>
      <trkpt lat="42.14544" lon="9.07294">
        <ele>1793.646</ele>
        <time>2015-07-01T06:02:39Z</time>
      </trkpt>
      <trkpt lat="42.14541" lon="9.07295">
        <ele>1795.043</ele>
        <time>2015-07-01T06:02:52Z</time>
      </trkpt>
      <trkpt lat="42.14536" lon="9.07292">
        <ele>1797.887</ele>
        <time>2015-07-01T06:03:09Z</time>
      </trkpt>
      <trkpt lat="42.14532" lon="9.0729">
        <ele>1799.326</ele>
        <time>2015-07-01T06:03:23Z</time>
      </trkpt>
      <trkpt lat="42.14529" lon="9.07292">
        <ele>1800.586</ele>
        <time>2015-07-01T06:03:39Z</time>
      </trkpt>
      <trkpt lat="42.14527" lon="9.07293">
        <ele>1801.948</ele>
        <time>2015-07-01T06:03:50Z</time>
      </trkpt>
      <trkpt lat="42.14525" lon="9.07294">
        <ele>1802.884</ele>
        <time>2015-07-01T06:04:01Z</time>
      </trkpt>
      <trkpt lat="42.14522" lon="9.07294">
        <ele>1803.532</ele>
        <time>2015-07-01T06:04:13Z</time>
      </trkpt>
      <trkpt lat="42.14519" lon="9.07294">
        <ele>1804.136</ele>
        <time>2015-07-01T06:04:25Z</time>
      </trkpt>
      <trkpt lat="42.14517" lon="9.07295">
        <ele>1806.969</ele>
        <time>2015-07-01T06:04:36Z</time>
      </trkpt>
      <trkpt lat="42.14515" lon="9.07299">
        <ele>1807.827</ele>
        <time>2015-07-01T06:04:50Z</time>
      </trkpt>
      <trkpt lat="42.14512" lon="9.073">
        <ele>1808.338</ele>
        <time>2015-07-01T06:05:04Z</time>
      </trkpt>
      <trkpt lat="42.14507" lon="9.073">
        <ele>1811.187</ele>
        <time>2015-07-01T06:05:20Z</time>
      </trkpt>
      <trkpt lat="42.14504" lon="9.07303">
        <ele>1812.921</ele>
        <time>2015-07-01T06:05:34Z</time>
      </trkpt>
      <trkpt lat="42.14502" lon="9.07303">
        <ele>1813.786</ele>
        <time>2015-07-01T06:05:46Z</time>
      </trkpt>
      <trkpt lat="42.14498" lon="9.07303">
        <ele>1814.738</ele>
        <time>2015-07-01T06:06:03Z</time>
      </trkpt>
      <trkpt lat="42.14493" lon="9.07304">
        <ele>1816.945</ele>
        <time>2015-07-01T06:06:17Z</time>
      </trkpt>
      <trkpt lat="42.14489" lon="9.07306">
        <ele>1818.244</ele>
        <time>2015-07-01T06:06:35Z</time>
      </trkpt>
      <trkpt lat="42.14486" lon="9.07309">
        <ele>1820.388</ele>
        <time>2015-07-01T06:06:49Z</time>
      </trkpt>
      <trkpt lat="42.14481" lon="9.07314">
        <ele>1822.11</ele>
        <time>2015-07-01T06:07:05Z</time>
      </trkpt>
      <trkpt lat="42.14476" lon="9.07311">
        <ele>1823.465</ele>
        <time>2015-07-01T06:07:20Z</time>
      </trkpt>
      <trkpt lat="42.14472" lon="9.07313">
        <ele>1824.956</ele>
        <time>2015-07-01T06:07:35Z</time>
      </trkpt>
      <trkpt lat="42.14467" lon="9.07312">
        <ele>1825.606</ele>
        <time>2015-07-01T06:07:47Z</time>
      </trkpt>
      <trkpt lat="42.14461" lon="9.07309">
        <ele>1827.569</ele>
        <time>2015-07-01T06:08:03Z</time>
      </trkpt>
      <trkpt lat="42.14455" lon="9.0731">
        <ele>1829.917</ele>
        <time>2015-07-01T06:08:19Z</time>
      </trkpt>
      <trkpt lat="42.14451" lon="9.0731">
        <ele>1831.913</ele>
        <time>2015-07-01T06:08:32Z</time>
      </trkpt>
      <trkpt lat="42.14446" lon="9.07311">
        <ele>1832.275</ele>
        <time>2015-07-01T06:08:45Z</time>
      </trkpt>
      <trkpt lat="42.1444" lon="9.07313">
        <ele>1833.807</ele>
        <time>2015-07-01T06:09:00Z</time>
      </trkpt>
      <trkpt lat="42.14435" lon="9.07319">
        <ele>1836.033</ele>
        <time>2015-07-01T06:09:16Z</time>
      </trkpt>
      <trkpt lat="42.1443" lon="9.0732">
        <ele>1837.543</ele>
        <time>2015-07-01T06:09:30Z</time>
      </trkpt>
      <trkpt lat="42.14425" lon="9.07324">
        <ele>1838.597</ele>
        <time>2015-07-01T06:09:45Z</time>
      </trkpt>
      <trkpt lat="42.14419" lon="9.07332">
        <ele>1841.061</ele>
        <time>2015-07-01T06:10:01Z</time>
      </trkpt>
      <trkpt lat="42.14417" lon="9.07335">
        <ele>1841.832</ele>
        <time>2015-07-01T06:10:18Z</time>
      </trkpt>
      <trkpt lat="42.14414" lon="9.07332">
        <ele>1842.965</ele>
        <time>2015-07-01T06:11:09Z</time>
      </trkpt>
      <trkpt lat="42.14403" lon="9.07332">
        <ele>1845.357</ele>
        <time>2015-07-01T06:11:26Z</time>
      </trkpt>
      <trkpt lat="42.14392" lon="9.07333">
        <ele>1845.374</ele>
        <time>2015-07-01T06:11:43Z</time>
      </trkpt>
      <trkpt lat="42.14383" lon="9.0734">
        <ele>1845.162</ele>
        <time>2015-07-01T06:11:58Z</time>
      </trkpt>
      <trkpt lat="42.14368" lon="9.07351">
        <ele>1845.133</ele>
        <time>2015-07-01T06:12:18Z</time>
      </trkpt>
      <trkpt lat="42.14344" lon="9.07355">
        <ele>1843.86</ele>
        <time>2015-07-01T06:12:41Z</time>
      </trkpt>
      <trkpt lat="42.14332" lon="9.07355">
        <ele>1846.412</ele>
        <time>2015-07-01T06:12:59Z</time>
      </trkpt>
      <trkpt lat="42.14322" lon="9.07357">
        <ele>1847.772</ele>
        <time>2015-07-01T06:13:16Z</time>
      </trkpt>
      <trkpt lat="42.14313" lon="9.0736">
        <ele>1849.237</ele>
        <time>2015-07-01T06:13:32Z</time>
      </trkpt>
      <trkpt lat="42.14304" lon="9.07366">
        <ele>1850.108</ele>
        <time>2015-07-01T06:13:48Z</time>
      </trkpt>
      <trkpt lat="42.14296" lon="9.07361">
        <ele>1852.273</ele>
        <time>2015-07-01T06:14:06Z</time>
      </trkpt>
      <trkpt lat="42.14286" lon="9.0736">
        <ele>1853.221</ele>
        <time>2015-07-01T06:14:22Z</time>
      </trkpt>
      <trkpt lat="42.14276" lon="9.07358">
        <ele>1855.142</ele>
        <time>2015-07-01T06:14:40Z</time>
      </trkpt>
      <trkpt lat="42.14273" lon="9.07358">
        <ele>1856.092</ele>
        <time>2015-07-01T06:14:46Z</time>
      </trkpt>
      <trkpt lat="42.14264" lon="9.07365">
        <ele>1857.757</ele>
        <time>2015-07-01T06:15:04Z</time>
      </trkpt>
      <trkpt lat="42.1426" lon="9.07373">
        <ele>1858.618</ele>
        <time>2015-07-01T06:15:18Z</time>
      </trkpt>
      <trkpt lat="42.14253" lon="9.07381">
        <ele>1860.111</ele>
        <time>2015-07-01T06:15:36Z</time>
      </trkpt>
      <trkpt lat="42.14252" lon="9.07386">
        <ele>1861.812</ele>
        <time>2015-07-01T06:15:50Z</time>
      </trkpt>
      <trkpt lat="42.14248" lon="9.07392">
        <ele>1863.548</ele>
        <time>2015-07-01T06:16:05Z</time>
      </trkpt>
      <trkpt lat="42.14244" lon="9.07398">
        <ele>1865.292</ele>
        <time>2015-07-01T06:16:22Z</time>
      </trkpt>
      <trkpt lat="42.1424" lon="9.07401">
        <ele>1866.929</ele>
        <time>2015-07-01T06:16:39Z</time>
      </trkpt>
      <trkpt lat="42.14235" lon="9.07403">
        <ele>1868.359</ele>
        <time>2015-07-01T06:16:53Z</time>
      </trkpt>
      <trkpt lat="42.14232" lon="9.07408">
        <ele>1869.203</ele>
        <time>2015-07-01T06:17:08Z</time>
      </trkpt>
      <trkpt lat="42.14224" lon="9.07408">
        <ele>1871.31</ele>
        <time>2015-07-01T06:17:25Z</time>
      </trkpt>
      <trkpt lat="42.14217" lon="9.0741">
        <ele>1872.253</ele>
        <time>2015-07-01T06:17:41Z</time>
      </trkpt>
      <trkpt lat="42.14212" lon="9.07412">
        <ele>1873.276</ele>
        <time>2015-07-01T06:17:55Z</time>
      </trkpt>
      <trkpt lat="42.14207" lon="9.07411">
        <ele>1874.102</ele>
        <time>2015-07-01T06:18:10Z</time>
      </trkpt>
      <trkpt lat="42.14208" lon="9.07418">
        <ele>1875.95</ele>
        <time>2015-07-01T06:18:22Z</time>
      </trkpt>
      <trkpt lat="42.14206" lon="9.07424">
        <ele>1877.604</ele>
        <time>2015-07-01T06:18:35Z</time>
      </trkpt>
      <trkpt lat="42.14207" lon="9.07435">
        <ele>1879.71</ele>
        <time>2015-07-01T06:18:52Z</time>
      </trkpt>
      <trkpt lat="42.14202" lon="9.07436">
        <ele>1879.784</ele>
        <time>2015-07-01T06:19:07Z</time>
      </trkpt>
      <trkpt lat="42.14197" lon="9.07438">
        <ele>1882.868</ele>
        <time>2015-07-01T06:19:22Z</time>
      </trkpt>
      <trkpt lat="42.14197" lon="9.0744">
        <ele>1884.437</ele>
        <time>2015-07-01T06:19:35Z</time>
      </trkpt>
      <trkpt lat="42.14196" lon="9.07445">
        <ele>1885.88</ele>
        <time>2015-07-01T06:19:47Z</time>
      </trkpt>
      <trkpt lat="42.14192" lon="9.07449">
        <ele>1887.22</ele>
        <time>2015-07-01T06:20:01Z</time>
      </trkpt>
      <trkpt lat="42.14188" lon="9.07448">
        <ele>1889.339</ele>
        <time>2015-07-01T06:20:16Z</time>
      </trkpt>
      <trkpt lat="42.14184" lon="9.07448">
        <ele>1890.291</ele>
        <time>2015-07-01T06:20:29Z</time>
      </trkpt>
      <trkpt lat="42.1418" lon="9.07446">
        <ele>1891.041</ele>
        <time>2015-07-01T06:20:43Z</time>
      </trkpt>
      <trkpt lat="42.14177" lon="9.07443">
        <ele>1892.631</ele>
        <time>2015-07-01T06:20:56Z</time>
      </trkpt>
      <trkpt lat="42.14173" lon="9.07445">
        <ele>1894.075</ele>
        <time>2015-07-01T06:21:09Z</time>
      </trkpt>
      <trkpt lat="42.14171" lon="9.07445">
        <ele>1894.123</ele>
        <time>2015-07-01T06:21:21Z</time>
      </trkpt>
      <trkpt lat="42.14166" lon="9.07443">
        <ele>1896.484</ele>
        <time>2015-07-01T06:21:35Z</time>
      </trkpt>
      <trkpt lat="42.14157" lon="9.07443">
        <ele>1898.191</ele>
        <time>2015-07-01T06:21:51Z</time>
      </trkpt>
      <trkpt lat="42.14148" lon="9.0744">
        <ele>1898.653</ele>
        <time>2015-07-01T06:22:08Z</time>
      </trkpt>
      <trkpt lat="42.14143" lon="9.07443">
        <ele>1899.295</ele>
        <time>2015-07-01T06:22:22Z</time>
      </trkpt>
      <trkpt lat="42.14138" lon="9.07441">
        <ele>1901.749</ele>
        <time>2015-07-01T06:22:35Z</time>
      </trkpt>
      <trkpt lat="42.14135" lon="9.07441">
        <ele>1902.823</ele>
        <time>2015-07-01T06:22:45Z</time>
      </trkpt>
      <trkpt lat="42.14128" lon="9.0744">
        <ele>1903.122</ele>
        <time>2015-07-01T06:23:04Z</time>
      </trkpt>
      <trkpt lat="42.14125" lon="9.07443">
        <ele>1905.15</ele>
        <time>2015-07-01T06:23:17Z</time>
      </trkpt>
      <trkpt lat="42.14125" lon="9.07447">
        <ele>1906.146</ele>
        <time>2015-07-01T06:23:29Z</time>
      </trkpt>
      <trkpt lat="42.14121" lon="9.07449">
        <ele>1907.171</ele>
        <time>2015-07-01T06:23:43Z</time>
      </trkpt>
      <trkpt lat="42.14121" lon="9.07452">
        <ele>1908.73</ele>
        <time>2015-07-01T06:23:55Z</time>
      </trkpt>
      <trkpt lat="42.1412" lon="9.07455">
        <ele>1910.113</ele>
        <time>2015-07-01T06:24:09Z</time>
      </trkpt>
      <trkpt lat="42.14114" lon="9.07455">
        <ele>1911.099</ele>
        <time>2015-07-01T06:24:25Z</time>
      </trkpt>
      <trkpt lat="42.14114" lon="9.07458">
        <ele>1912.41</ele>
        <time>2015-07-01T06:24:37Z</time>
      </trkpt>
      <trkpt lat="42.14112" lon="9.07459">
        <ele>1913.395</ele>
        <time>2015-07-01T06:24:50Z</time>
      </trkpt>
      <trkpt lat="42.14108" lon="9.07459">
        <ele>1914.131</ele>
        <time>2015-07-01T06:25:05Z</time>
      </trkpt>
      <trkpt lat="42.14104" lon="9.07461">
        <ele>1915.675</ele>
        <time>2015-07-01T06:25:18Z</time>
      </trkpt>
      <trkpt lat="42.141" lon="9.07465">
        <ele>1917.334</ele>
        <time>2015-07-01T06:25:33Z</time>
      </trkpt>
      <trkpt lat="42.14094" lon="9.07468">
        <ele>1918.704</ele>
        <time>2015-07-01T06:25:48Z</time>
      </trkpt>
      <trkpt lat="42.1409" lon="9.07471">
        <ele>1920.5</ele>
        <time>2015-07-01T06:26:03Z</time>
      </trkpt>
      <trkpt lat="42.14087" lon="9.07474">
        <ele>1922.126</ele>
        <time>2015-07-01T06:26:16Z</time>
      </trkpt>
      <trkpt lat="42.14082" lon="9.07478">
        <ele>1922.663</ele>
        <time>2015-07-01T06:26:32Z</time>
      </trkpt>
      <trkpt lat="42.14079" lon="9.07481">
        <ele>1924.312</ele>
        <time>2015-07-01T06:26:46Z</time>
      </trkpt>
      <trkpt lat="42.14075" lon="9.07483">
        <ele>1926.575</ele>
        <time>2015-07-01T06:27:00Z</time>
      </trkpt>
      <trkpt lat="42.14068" lon="9.07485">
        <ele>1928.448</ele>
        <time>2015-07-01T06:27:14Z</time>
      </trkpt>
      <trkpt lat="42.14063" lon="9.07486">
        <ele>1929.065</ele>
        <time>2015-07-01T06:27:21Z</time>
      </trkpt>
      <trkpt lat="42.14056" lon="9.07489">
        <ele>1929.524</ele>
        <time>2015-07-01T06:27:36Z</time>
      </trkpt>
      <trkpt lat="42.14051" lon="9.07492">
        <ele>1929.526</ele>
        <time>2015-07-01T06:27:51Z</time>
      </trkpt>
      <trkpt lat="42.14045" lon="9.07494">
        <ele>1933.003</ele>
        <time>2015-07-01T06:28:07Z</time>
      </trkpt>
      <trkpt lat="42.1404" lon="9.07497">
        <ele>1936.311</ele>
        <time>2015-07-01T06:28:24Z</time>
      </trkpt>
      <trkpt lat="42.14034" lon="9.07498">
        <ele>1937.656</ele>
        <time>2015-07-01T06:28:39Z</time>
      </trkpt>
      <trkpt lat="42.14029" lon="9.07499">
        <ele>1938.534</ele>
        <time>2015-07-01T06:28:54Z</time>
      </trkpt>
      <trkpt lat="42.14024" lon="9.07502">
        <ele>1939.194</ele>
        <time>2015-07-01T06:29:11Z</time>
      </trkpt>
      <trkpt lat="42.14019" lon="9.07505">
        <ele>1940.774</ele>
        <time>2015-07-01T06:29:27Z</time>
      </trkpt>
      <trkpt lat="42.14015" lon="9.07508">
        <ele>1942.658</ele>
        <time>2015-07-01T06:29:40Z</time>
      </trkpt>
      <trkpt lat="42.14011" lon="9.0751">
        <ele>1944.336</ele>
        <time>2015-07-01T06:29:56Z</time>
      </trkpt>
      <trkpt lat="42.14011" lon="9.07514">
        <ele>1945.873</ele>
        <time>2015-07-01T06:30:11Z</time>
      </trkpt>
      <trkpt lat="42.14009" lon="9.07517">
        <ele>1946.908</ele>
        <time>2015-07-01T06:30:24Z</time>
      </trkpt>
      <trkpt lat="42.14006" lon="9.07519">
        <ele>1948.181</ele>
        <time>2015-07-01T06:30:39Z</time>
      </trkpt>
      <trkpt lat="42.14004" lon="9.07522">
        <ele>1950.27</ele>
        <time>2015-07-01T06:30:53Z</time>
      </trkpt>
      <trkpt lat="42.14005" lon="9.07527">
        <ele>1951.57</ele>
        <time>2015-07-01T06:31:05Z</time>
      </trkpt>
      <trkpt lat="42.14005" lon="9.0753">
        <ele>1952.82</ele>
        <time>2015-07-01T06:31:18Z</time>
      </trkpt>
      <trkpt lat="42.14003" lon="9.07534">
        <ele>1954.759</ele>
        <time>2015-07-01T06:31:32Z</time>
      </trkpt>
      <trkpt lat="42.14001" lon="9.07537">
        <ele>1955.943</ele>
        <time>2015-07-01T06:31:44Z</time>
      </trkpt>
      <trkpt lat="42.14" lon="9.07539">
        <ele>1956.805</ele>
        <time>2015-07-01T06:31:56Z</time>
      </trkpt>
      <trkpt lat="42.13995" lon="9.0754">
        <ele>1958.411</ele>
        <time>2015-07-01T06:32:12Z</time>
      </trkpt>
      <trkpt lat="42.1399" lon="9.0754">
        <ele>1958.733</ele>
        <time>2015-07-01T06:32:27Z</time>
      </trkpt>
      <trkpt lat="42.13985" lon="9.07544">
        <ele>1960.406</ele>
        <time>2015-07-01T06:32:45Z</time>
      </trkpt>
      <trkpt lat="42.13981" lon="9.07541">
        <ele>1961.517</ele>
        <time>2015-07-01T06:32:59Z</time>
      </trkpt>
      <trkpt lat="42.13977" lon="9.07543">
        <ele>1962.704</ele>
        <time>2015-07-01T06:33:13Z</time>
      </trkpt>
      <trkpt lat="42.13971" lon="9.07542">
        <ele>1963.473</ele>
        <time>2015-07-01T06:33:27Z</time>
      </trkpt>
      <trkpt lat="42.13966" lon="9.07541">
        <ele>1964.646</ele>
        <time>2015-07-01T06:33:40Z</time>
      </trkpt>
      <trkpt lat="42.13961" lon="9.07542">
        <ele>1966.102</ele>
        <time>2015-07-01T06:33:55Z</time>
      </trkpt>
      <trkpt lat="42.13956" lon="9.07544">
        <ele>1967.47</ele>
        <time>2015-07-01T06:34:09Z</time>
      </trkpt>
      <trkpt lat="42.13953" lon="9.07548">
        <ele>1969.422</ele>
        <time>2015-07-01T06:34:23Z</time>
      </trkpt>
      <trkpt lat="42.13947" lon="9.07547">
        <ele>1969.669</ele>
        <time>2015-07-01T06:34:38Z</time>
      </trkpt>
      <trkpt lat="42.13941" lon="9.07549">
        <ele>1970.901</ele>
        <time>2015-07-01T06:34:52Z</time>
      </trkpt>
      <trkpt lat="42.13935" lon="9.07555">
        <ele>1971.662</ele>
        <time>2015-07-01T06:35:07Z</time>
      </trkpt>
      <trkpt lat="42.13931" lon="9.07554">
        <ele>1971.965</ele>
        <time>2015-07-01T06:35:20Z</time>
      </trkpt>
      <trkpt lat="42.13928" lon="9.07555">
        <ele>1974.107</ele>
        <time>2015-07-01T06:35:33Z</time>
      </trkpt>
      <trkpt lat="42.13925" lon="9.07555">
        <ele>1974.727</ele>
        <time>2015-07-01T06:35:44Z</time>
      </trkpt>
      <trkpt lat="42.13923" lon="9.07557">
        <ele>1975.846</ele>
        <time>2015-07-01T06:35:57Z</time>
      </trkpt>
      <trkpt lat="42.13919" lon="9.07558">
        <ele>1976.87</ele>
        <time>2015-07-01T06:36:10Z</time>
      </trkpt>
      <trkpt lat="42.13915" lon="9.07557">
        <ele>1978.263</ele>
        <time>2015-07-01T06:36:22Z</time>
      </trkpt>
      <trkpt lat="42.13913" lon="9.0756">
        <ele>1980.211</ele>
        <time>2015-07-01T06:36:33Z</time>
      </trkpt>
      <trkpt lat="42.13911" lon="9.07564">
        <ele>1982.013</ele>
        <time>2015-07-01T06:36:49Z</time>
      </trkpt>
      <trkpt lat="42.13909" lon="9.07567">
        <ele>1982.808</ele>
        <time>2015-07-01T06:37:03Z</time>
      </trkpt>
      <trkpt lat="42.13908" lon="9.07571">
        <ele>1984.9</ele>
        <time>2015-07-01T06:37:16Z</time>
      </trkpt>
      <trkpt lat="42.13905" lon="9.07571">
        <ele>1985.615</ele>
        <time>2015-07-01T06:37:28Z</time>
      </trkpt>
      <trkpt lat="42.13901" lon="9.07572">
        <ele>1986.625</ele>
        <time>2015-07-01T06:37:40Z</time>
      </trkpt>
      <trkpt lat="42.13896" lon="9.07573">
        <ele>1987.64</ele>
        <time>2015-07-01T06:37:54Z</time>
      </trkpt>
      <trkpt lat="42.13887" lon="9.07567">
        <ele>1987.719</ele>
        <time>2015-07-01T06:38:11Z</time>
      </trkpt>
      <trkpt lat="42.13875" lon="9.07559">
        <ele>1987.737</ele>
        <time>2015-07-01T06:38:29Z</time>
      </trkpt>
      <trkpt lat="42.13867" lon="9.07558">
        <ele>1989.839</ele>
        <time>2015-07-01T06:38:46Z</time>
      </trkpt>
      <trkpt lat="42.13862" lon="9.07559">
        <ele>1992.075</ele>
        <time>2015-07-01T06:38:59Z</time>
      </trkpt>
      <trkpt lat="42.1386" lon="9.07563">
        <ele>1994.231</ele>
        <time>2015-07-01T06:39:15Z</time>
      </trkpt>
      <trkpt lat="42.13859" lon="9.07565">
        <ele>1994.896</ele>
        <time>2015-07-01T06:39:27Z</time>
      </trkpt>
      <trkpt lat="42.13855" lon="9.07566">
        <ele>1994.929</ele>
        <time>2015-07-01T06:39:39Z</time>
      </trkpt>
      <trkpt lat="42.13855" lon="9.07572">
        <ele>1996.995</ele>
        <time>2015-07-01T06:39:53Z</time>
      </trkpt>
      <trkpt lat="42.13856" lon="9.07577">
        <ele>1999.209</ele>
        <time>2015-07-01T06:40:07Z</time>
      </trkpt>
      <trkpt lat="42.13852" lon="9.07577">
        <ele>2000.504</ele>
        <time>2015-07-01T06:40:20Z</time>
      </trkpt>
      <trkpt lat="42.13848" lon="9.07578">
        <ele>2000.963</ele>
        <time>2015-07-01T06:40:34Z</time>
      </trkpt>
      <trkpt lat="42.13846" lon="9.07578">
        <ele>2002.156</ele>
        <time>2015-07-01T06:40:47Z</time>
      </trkpt>
      <trkpt lat="42.13845" lon="9.07581">
        <ele>2003.72</ele>
        <time>2015-07-01T06:41:01Z</time>
      </trkpt>
      <trkpt lat="42.13842" lon="9.07577">
        <ele>2006.084</ele>
        <time>2015-07-01T06:41:15Z</time>
      </trkpt>
      <trkpt lat="42.13836" lon="9.07575">
        <ele>2007.703</ele>
        <time>2015-07-01T06:41:31Z</time>
      </trkpt>
      <trkpt lat="42.13831" lon="9.07574">
        <ele>2009.63</ele>
        <time>2015-07-01T06:41:45Z</time>
      </trkpt>
      <trkpt lat="42.13825" lon="9.07572">
        <ele>2011.526</ele>
        <time>2015-07-01T06:42:00Z</time>
      </trkpt>
      <trkpt lat="42.13823" lon="9.07575">
        <ele>2011.966</ele>
        <time>2015-07-01T06:42:14Z</time>
      </trkpt>
      <trkpt lat="42.13821" lon="9.07577">
        <ele>2013.523</ele>
        <time>2015-07-01T06:42:28Z</time>
      </trkpt>
      <trkpt lat="42.13819" lon="9.07577">
        <ele>2015.261</ele>
        <time>2015-07-01T06:42:39Z</time>
      </trkpt>
      <trkpt lat="42.13817" lon="9.0758">
        <ele>2015.559</ele>
        <time>2015-07-01T06:42:51Z</time>
      </trkpt>
      <trkpt lat="42.13817" lon="9.07583">
        <ele>2016.93</ele>
        <time>2015-07-01T06:43:02Z</time>
      </trkpt>
      <trkpt lat="42.13814" lon="9.07582">
        <ele>2018.322</ele>
        <time>2015-07-01T06:43:14Z</time>
      </trkpt>
      <trkpt lat="42.13808" lon="9.07579">
        <ele>2019.781</ele>
        <time>2015-07-01T06:43:29Z</time>
      </trkpt>
      <trkpt lat="42.13804" lon="9.07577">
        <ele>2020.646</ele>
        <time>2015-07-01T06:43:45Z</time>
      </trkpt>
      <trkpt lat="42.13802" lon="9.07578">
        <ele>2021.385</ele>
        <time>2015-07-01T06:43:57Z</time>
      </trkpt>
      <trkpt lat="42.13799" lon="9.07578">
        <ele>2023.243</ele>
        <time>2015-07-01T06:44:09Z</time>
      </trkpt>
      <trkpt lat="42.13797" lon="9.07577">
        <ele>2022.958</ele>
        <time>2015-07-01T06:44:19Z</time>
      </trkpt>
      <trkpt lat="42.13793" lon="9.07575">
        <ele>2022.724</ele>
        <time>2015-07-01T06:44:35Z</time>
      </trkpt>
      <trkpt lat="42.13786" lon="9.07572">
        <ele>2023.151</ele>
        <time>2015-07-01T06:44:49Z</time>
      </trkpt>
      <trkpt lat="42.13784" lon="9.07573">
        <ele>2023.677</ele>
        <time>2015-07-01T06:45:01Z</time>
      </trkpt>
      <trkpt lat="42.13783" lon="9.07573">
        <ele>2025.616</ele>
        <time>2015-07-01T06:45:10Z</time>
      </trkpt>
      <trkpt lat="42.13782" lon="9.07571">
        <ele>2026.726</ele>
        <time>2015-07-01T06:45:27Z</time>
      </trkpt>
      <trkpt lat="42.13779" lon="9.07569">
        <ele>2026.977</ele>
        <time>2015-07-01T06:45:44Z</time>
      </trkpt>
      <trkpt lat="42.13779" lon="9.07567">
        <ele>2028.155</ele>
        <time>2015-07-01T06:45:56Z</time>
      </trkpt>
      <trkpt lat="42.13773" lon="9.07567">
        <ele>2028.609</ele>
        <time>2015-07-01T06:46:10Z</time>
      </trkpt>
      <trkpt lat="42.13771" lon="9.07568">
        <ele>2027.124</ele>
        <time>2015-07-01T06:46:20Z</time>
      </trkpt>
      <trkpt lat="42.13767" lon="9.07569">
        <ele>2027.814</ele>
        <time>2015-07-01T06:46:38Z</time>
      </trkpt>
      <trkpt lat="42.13767" lon="9.07573">
        <ele>2029.36</ele>
        <time>2015-07-01T06:46:51Z</time>
      </trkpt>
      <trkpt lat="42.13765" lon="9.07574">
        <ele>2032.077</ele>
        <time>2015-07-01T06:47:04Z</time>
      </trkpt>
      <trkpt lat="42.13761" lon="9.07573">
        <ele>2031.11</ele>
        <time>2015-07-01T06:47:14Z</time>
      </trkpt>
      <trkpt lat="42.13754" lon="9.07573">
        <ele>2031.757</ele>
        <time>2015-07-01T06:47:28Z</time>
      </trkpt>
      <trkpt lat="42.13753" lon="9.07575">
        <ele>2032.429</ele>
        <time>2015-07-01T06:47:39Z</time>
      </trkpt>
      <trkpt lat="42.13753" lon="9.07577">
        <ele>2034.753</ele>
        <time>2015-07-01T06:47:52Z</time>
      </trkpt>
      <trkpt lat="42.13753" lon="9.07582">
        <ele>2036.202</ele>
        <time>2015-07-01T06:48:08Z</time>
      </trkpt>
      <trkpt lat="42.1375" lon="9.07582">
        <ele>2038.835</ele>
        <time>2015-07-01T06:48:21Z</time>
      </trkpt>
      <trkpt lat="42.13746" lon="9.07582">
        <ele>2040.722</ele>
        <time>2015-07-01T06:48:35Z</time>
      </trkpt>
      <trkpt lat="42.13746" lon="9.07585">
        <ele>2041.829</ele>
        <time>2015-07-01T06:48:51Z</time>
      </trkpt>
      <trkpt lat="42.13748" lon="9.07591">
        <ele>2043.225</ele>
        <time>2015-07-01T06:49:08Z</time>
      </trkpt>
      <trkpt lat="42.13749" lon="9.07595">
        <ele>2044.816</ele>
        <time>2015-07-01T06:49:21Z</time>
      </trkpt>
      <trkpt lat="42.13749" lon="9.07597">
        <ele>2045.34</ele>
        <time>2015-07-01T06:49:35Z</time>
      </trkpt>
      <trkpt lat="42.13749" lon="9.076">
        <ele>2046.52</ele>
        <time>2015-07-01T06:49:47Z</time>
      </trkpt>
      <trkpt lat="42.13747" lon="9.076">
        <ele>2047.683</ele>
        <time>2015-07-01T06:49:58Z</time>
      </trkpt>
      <trkpt lat="42.13745" lon="9.07598">
        <ele>2048.133</ele>
        <time>2015-07-01T06:50:10Z</time>
      </trkpt>
      <trkpt lat="42.1374" lon="9.07597">
        <ele>2050.925</ele>
        <time>2015-07-01T06:50:23Z</time>
      </trkpt>
      <trkpt lat="42.13736" lon="9.07597">
        <ele>2051.853</ele>
        <time>2015-07-01T06:50:38Z</time>
      </trkpt>
      <trkpt lat="42.13733" lon="9.07597">
        <ele>2053.086</ele>
        <time>2015-07-01T06:50:51Z</time>
      </trkpt>
      <trkpt lat="42.13731" lon="9.076">
        <ele>2054.345</ele>
        <time>2015-07-01T06:51:03Z</time>
      </trkpt>
      <trkpt lat="42.13728" lon="9.07602">
        <ele>2056.385</ele>
        <time>2015-07-01T06:51:16Z</time>
      </trkpt>
      <trkpt lat="42.13725" lon="9.07603">
        <ele>2057.855</ele>
        <time>2015-07-01T06:51:28Z</time>
      </trkpt>
      <trkpt lat="42.13723" lon="9.07605">
        <ele>2058.834</ele>
        <time>2015-07-01T06:51:42Z</time>
      </trkpt>
      <trkpt lat="42.1372" lon="9.07607">
        <ele>2060.004</ele>
        <time>2015-07-01T06:51:55Z</time>
      </trkpt>
      <trkpt lat="42.1372" lon="9.07607">
        <ele>2060.006</ele>
        <time>2015-07-01T06:51:56Z</time>
      </trkpt>
      <trkpt lat="42.13719" lon="9.07609">
        <ele>2060.892</ele>
        <time>2015-07-01T06:52:15Z</time>
      </trkpt>
      <trkpt lat="42.13717" lon="9.0761">
        <ele>2061.951</ele>
        <time>2015-07-01T06:52:27Z</time>
      </trkpt>
      <trkpt lat="42.13715" lon="9.07612">
        <ele>2062.866</ele>
        <time>2015-07-01T06:52:42Z</time>
      </trkpt>
      <trkpt lat="42.13712" lon="9.07612">
        <ele>2064.399</ele>
        <time>2015-07-01T06:52:55Z</time>
      </trkpt>
      <trkpt lat="42.13712" lon="9.07616">
        <ele>2065.169</ele>
        <time>2015-07-01T06:53:08Z</time>
      </trkpt>
      <trkpt lat="42.13712" lon="9.07617">
        <ele>2066.428</ele>
        <time>2015-07-01T06:53:22Z</time>
      </trkpt>
      <trkpt lat="42.1371" lon="9.07616">
        <ele>2066.918</ele>
        <time>2015-07-01T06:53:34Z</time>
      </trkpt>
      <trkpt lat="42.13708" lon="9.07618">
        <ele>2069.103</ele>
        <time>2015-07-01T06:53:46Z</time>
      </trkpt>
      <trkpt lat="42.13706" lon="9.07617">
        <ele>2069.817</ele>
        <time>2015-07-01T06:54:00Z</time>
      </trkpt>
      <trkpt lat="42.13704" lon="9.07616">
        <ele>2070.372</ele>
        <time>2015-07-01T06:54:15Z</time>
      </trkpt>
      <trkpt lat="42.13702" lon="9.07617">
        <ele>2071.89</ele>
        <time>2015-07-01T06:54:27Z</time>
      </trkpt>
      <trkpt lat="42.13701" lon="9.07617">
        <ele>2073.253</ele>
        <time>2015-07-01T06:54:41Z</time>
      </trkpt>
      <trkpt lat="42.13699" lon="9.07617">
        <ele>2074.604</ele>
        <time>2015-07-01T06:54:55Z</time>
      </trkpt>
      <trkpt lat="42.137" lon="9.07618">
        <ele>2075.602</ele>
        <time>2015-07-01T06:55:09Z</time>
      </trkpt>
      <trkpt lat="42.137" lon="9.07622">
        <ele>2077.129</ele>
        <time>2015-07-01T06:55:21Z</time>
      </trkpt>
      <trkpt lat="42.13703" lon="9.07627">
        <ele>2077.113</ele>
        <time>2015-07-01T06:55:36Z</time>
      </trkpt>
      <trkpt lat="42.13702" lon="9.07629">
        <ele>2077.637</ele>
        <time>2015-07-01T06:55:47Z</time>
      </trkpt>
      <trkpt lat="42.13701" lon="9.07631">
        <ele>2078.947</ele>
        <time>2015-07-01T06:56:00Z</time>
      </trkpt>
      <trkpt lat="42.13702" lon="9.07634">
        <ele>2079.636</ele>
        <time>2015-07-01T06:56:14Z</time>
      </trkpt>
      <trkpt lat="42.13702" lon="9.07635">
        <ele>2081.091</ele>
        <time>2015-07-01T06:56:27Z</time>
      </trkpt>
      <trkpt lat="42.13702" lon="9.07639">
        <ele>2082.782</ele>
        <time>2015-07-01T06:56:42Z</time>
      </trkpt>
      <trkpt lat="42.13707" lon="9.07644">
        <ele>2083.768</ele>
        <time>2015-07-01T06:56:57Z</time>
      </trkpt>
      <trkpt lat="42.13707" lon="9.07648">
        <ele>2086.09</ele>
        <time>2015-07-01T06:57:12Z</time>
      </trkpt>
      <trkpt lat="42.13705" lon="9.07648">
        <ele>2087.222</ele>
        <time>2015-07-01T06:57:24Z</time>
      </trkpt>
      <trkpt lat="42.13702" lon="9.07649">
        <ele>2087.339</ele>
        <time>2015-07-01T06:57:37Z</time>
      </trkpt>
      <trkpt lat="42.137" lon="9.0765">
        <ele>2089.532</ele>
        <time>2015-07-01T06:57:51Z</time>
      </trkpt>
      <trkpt lat="42.13697" lon="9.0765">
        <ele>2091.606</ele>
        <time>2015-07-01T06:58:05Z</time>
      </trkpt>
      <trkpt lat="42.13697" lon="9.07652">
        <ele>2092.275</ele>
        <time>2015-07-01T06:58:20Z</time>
      </trkpt>
      <trkpt lat="42.13699" lon="9.07656">
        <ele>2092.706</ele>
        <time>2015-07-01T06:58:33Z</time>
      </trkpt>
      <trkpt lat="42.13697" lon="9.07658">
        <ele>2093.819</ele>
        <time>2015-07-01T06:58:46Z</time>
      </trkpt>
      <trkpt lat="42.13696" lon="9.07659">
        <ele>2095.435</ele>
        <time>2015-07-01T06:58:59Z</time>
      </trkpt>
      <trkpt lat="42.13692" lon="9.07658">
        <ele>2096.644</ele>
        <time>2015-07-01T06:59:13Z</time>
      </trkpt>
      <trkpt lat="42.13688" lon="9.07659">
        <ele>2098.473</ele>
        <time>2015-07-01T06:59:26Z</time>
      </trkpt>
      <trkpt lat="42.13687" lon="9.07661">
        <ele>2100.273</ele>
        <time>2015-07-01T06:59:46Z</time>
      </trkpt>
      <trkpt lat="42.13687" lon="9.07665">
        <ele>2100.64</ele>
        <time>2015-07-01T06:59:58Z</time>
      </trkpt>
      <trkpt lat="42.13688" lon="9.07673">
        <ele>2102.707</ele>
        <time>2015-07-01T07:00:16Z</time>
      </trkpt>
      <trkpt lat="42.13686" lon="9.07675">
        <ele>2104.438</ele>
        <time>2015-07-01T07:00:29Z</time>
      </trkpt>
      <trkpt lat="42.13685" lon="9.07678">
        <ele>2106.271</ele>
        <time>2015-07-01T07:00:43Z</time>
      </trkpt>
      <trkpt lat="42.13685" lon="9.0768">
        <ele>2106.265</ele>
        <time>2015-07-01T07:00:54Z</time>
      </trkpt>
      <trkpt lat="42.13685" lon="9.07686">
        <ele>2107.288</ele>
        <time>2015-07-01T07:01:09Z</time>
      </trkpt>
      <trkpt lat="42.13685" lon="9.07691">
        <ele>2109.313</ele>
        <time>2015-07-01T07:01:22Z</time>
      </trkpt>
      <trkpt lat="42.13685" lon="9.07698">
        <ele>2110.67</ele>
        <time>2015-07-01T07:01:35Z</time>
      </trkpt>
      <trkpt lat="42.13682" lon="9.07706">
        <ele>2111.341</ele>
        <time>2015-07-01T07:01:49Z</time>
      </trkpt>
      <trkpt lat="42.1368" lon="9.07713">
        <ele>2112.275</ele>
        <time>2015-07-01T07:02:01Z</time>
      </trkpt>
      <trkpt lat="42.13678" lon="9.07712">
        <ele>2114.165</ele>
        <time>2015-07-01T07:02:14Z</time>
      </trkpt>
      <trkpt lat="42.13677" lon="9.07712">
        <ele>2114.532</ele>
        <time>2015-07-01T07:02:42Z</time>
      </trkpt>
      <trkpt lat="42.13676" lon="9.07712">
        <ele>2113.469</ele>
        <time>2015-07-01T07:02:58Z</time>
      </trkpt>
      <trkpt lat="42.13675" lon="9.07715">
        <ele>2113.806</ele>
        <time>2015-07-01T07:04:48Z</time>
      </trkpt>
      <trkpt lat="42.13677" lon="9.07714">
        <ele>2114.24</ele>
        <time>2015-07-01T07:06:24Z</time>
      </trkpt>
      <trkpt lat="42.13676" lon="9.07714">
        <ele>2113.573</ele>
        <time>2015-07-01T07:07:04Z</time>
      </trkpt>
      <trkpt lat="42.13676" lon="9.07717">
        <ele>2115.51</ele>
        <time>2015-07-01T07:17:01Z</time>
      </trkpt>
      <trkpt lat="42.13676" lon="9.07717">
        <ele>2115.662</ele>
        <time>2015-07-01T07:18:05Z</time>
      </trkpt>
      <trkpt lat="42.13677" lon="9.07716">
        <ele>2115.878</ele>
        <time>2015-07-01T07:18:18Z</time>
      </trkpt>
      <trkpt lat="42.13678" lon="9.07715">
        <ele>2116.567</ele>
        <time>2015-07-01T07:18:49Z</time>
      </trkpt>
      <trkpt lat="42.13678" lon="9.07718">
        <ele>2117.289</ele>
        <time>2015-07-01T07:19:06Z</time>
      </trkpt>
      <trkpt lat="42.13678" lon="9.07722">
        <ele>2116.308</ele>
        <time>2015-07-01T07:19:18Z</time>
      </trkpt>
      <trkpt lat="42.13676" lon="9.07725">
        <ele>2115.489</ele>
        <time>2015-07-01T07:19:32Z</time>
      </trkpt>
      <trkpt lat="42.13675" lon="9.07726">
        <ele>2114.118</ele>
        <time>2015-07-01T07:19:40Z</time>
      </trkpt>
      <trkpt lat="42.13671" lon="9.07726">
        <ele>2111.972</ele>
        <time>2015-07-01T07:19:52Z</time>
      </trkpt>
      <trkpt lat="42.13668" lon="9.07728">
        <ele>2109.775</ele>
        <time>2015-07-01T07:20:06Z</time>
      </trkpt>
      <trkpt lat="42.13665" lon="9.0773">
        <ele>2108.062</ele>
        <time>2015-07-01T07:20:20Z</time>
      </trkpt>
      <trkpt lat="42.13666" lon="9.07738">
        <ele>2106.36</ele>
        <time>2015-07-01T07:20:33Z</time>
      </trkpt>
      <trkpt lat="42.13667" lon="9.07745">
        <ele>2104.917</ele>
        <time>2015-07-01T07:20:45Z</time>
      </trkpt>
      <trkpt lat="42.1367" lon="9.07753">
        <ele>2101.784</ele>
        <time>2015-07-01T07:20:58Z</time>
      </trkpt>
      <trkpt lat="42.13669" lon="9.0776">
        <ele>2100.296</ele>
        <time>2015-07-01T07:21:11Z</time>
      </trkpt>
      <trkpt lat="42.13672" lon="9.07769">
        <ele>2097.336</ele>
        <time>2015-07-01T07:21:24Z</time>
      </trkpt>
      <trkpt lat="42.13672" lon="9.07774">
        <ele>2095.453</ele>
        <time>2015-07-01T07:21:39Z</time>
      </trkpt>
      <trkpt lat="42.13673" lon="9.0778">
        <ele>2094.157</ele>
        <time>2015-07-01T07:21:52Z</time>
      </trkpt>
      <trkpt lat="42.13674" lon="9.07785">
        <ele>2093.5</ele>
        <time>2015-07-01T07:22:00Z</time>
      </trkpt>
      <trkpt lat="42.13676" lon="9.07787">
        <ele>2092.181</ele>
        <time>2015-07-01T07:22:03Z</time>
      </trkpt>
      <trkpt lat="42.13679" lon="9.07794">
        <ele>2089.779</ele>
        <time>2015-07-01T07:22:14Z</time>
      </trkpt>
      <trkpt lat="42.13681" lon="9.078">
        <ele>2088.489</ele>
        <time>2015-07-01T07:22:25Z</time>
      </trkpt>
      <trkpt lat="42.13684" lon="9.07808">
        <ele>2087.53</ele>
        <time>2015-07-01T07:22:38Z</time>
      </trkpt>
      <trkpt lat="42.13687" lon="9.07814">
        <ele>2084.628</ele>
        <time>2015-07-01T07:22:51Z</time>
      </trkpt>
      <trkpt lat="42.13682" lon="9.07821">
        <ele>2081.799</ele>
        <time>2015-07-01T07:23:06Z</time>
      </trkpt>
      <trkpt lat="42.13682" lon="9.07821">
        <ele>2081.619</ele>
        <time>2015-07-01T07:23:07Z</time>
      </trkpt>
      <trkpt lat="42.1368" lon="9.07824">
        <ele>2078.459</ele>
        <time>2015-07-01T07:23:12Z</time>
      </trkpt>
      <trkpt lat="42.13678" lon="9.0783">
        <ele>2075.594</ele>
        <time>2015-07-01T07:23:28Z</time>
      </trkpt>
      <trkpt lat="42.13679" lon="9.07836">
        <ele>2073.746</ele>
        <time>2015-07-01T07:23:43Z</time>
      </trkpt>
      <trkpt lat="42.13676" lon="9.0784">
        <ele>2071.753</ele>
        <time>2015-07-01T07:23:56Z</time>
      </trkpt>
      <trkpt lat="42.13677" lon="9.07848">
        <ele>2068.514</ele>
        <time>2015-07-01T07:24:08Z</time>
      </trkpt>
      <trkpt lat="42.13676" lon="9.07856">
        <ele>2065.326</ele>
        <time>2015-07-01T07:24:20Z</time>
      </trkpt>
      <trkpt lat="42.13673" lon="9.0786">
        <ele>2063.352</ele>
        <time>2015-07-01T07:24:28Z</time>
      </trkpt>
      <trkpt lat="42.1367" lon="9.07865">
        <ele>2059.883</ele>
        <time>2015-07-01T07:24:42Z</time>
      </trkpt>
      <trkpt lat="42.13665" lon="9.07867">
        <ele>2057.283</ele>
        <time>2015-07-01T07:24:55Z</time>
      </trkpt>
      <trkpt lat="42.13665" lon="9.07877">
        <ele>2054.712</ele>
        <time>2015-07-01T07:25:10Z</time>
      </trkpt>
      <trkpt lat="42.13666" lon="9.07887">
        <ele>2053.588</ele>
        <time>2015-07-01T07:25:24Z</time>
      </trkpt>
      <trkpt lat="42.13672" lon="9.07902">
        <ele>2051.508</ele>
        <time>2015-07-01T07:25:38Z</time>
      </trkpt>
      <trkpt lat="42.13672" lon="9.07915">
        <ele>2051.728</ele>
        <time>2015-07-01T07:25:53Z</time>
      </trkpt>
      <trkpt lat="42.13669" lon="9.07923">
        <ele>2050.659</ele>
        <time>2015-07-01T07:26:05Z</time>
      </trkpt>
      <trkpt lat="42.13671" lon="9.07929">
        <ele>2053.058</ele>
        <time>2015-07-01T07:26:19Z</time>
      </trkpt>
      <trkpt lat="42.13672" lon="9.07935">
        <ele>2054.025</ele>
        <time>2015-07-01T07:26:32Z</time>
      </trkpt>
      <trkpt lat="42.13672" lon="9.07946">
        <ele>2053.314</ele>
        <time>2015-07-01T07:26:46Z</time>
      </trkpt>
      <trkpt lat="42.13672" lon="9.07958">
        <ele>2052.021</ele>
        <time>2015-07-01T07:27:00Z</time>
      </trkpt>
      <trkpt lat="42.13674" lon="9.07968">
        <ele>2052.667</ele>
        <time>2015-07-01T07:27:15Z</time>
      </trkpt>
      <trkpt lat="42.13677" lon="9.07976">
        <ele>2052.911</ele>
        <time>2015-07-01T07:27:31Z</time>
      </trkpt>
      <trkpt lat="42.13676" lon="9.0798">
        <ele>2051.39</ele>
        <time>2015-07-01T07:27:46Z</time>
      </trkpt>
      <trkpt lat="42.13677" lon="9.07992">
        <ele>2051.556</ele>
        <time>2015-07-01T07:28:00Z</time>
      </trkpt>
      <trkpt lat="42.13678" lon="9.08005">
        <ele>2050.747</ele>
        <time>2015-07-01T07:28:14Z</time>
      </trkpt>
      <trkpt lat="42.13676" lon="9.08015">
        <ele>2050.175</ele>
        <time>2015-07-01T07:28:27Z</time>
      </trkpt>
      <trkpt lat="42.13677" lon="9.08021">
        <ele>2050.28</ele>
        <time>2015-07-01T07:28:38Z</time>
      </trkpt>
      <trkpt lat="42.13678" lon="9.08026">
        <ele>2048.585</ele>
        <time>2015-07-01T07:28:44Z</time>
      </trkpt>
      <trkpt lat="42.1368" lon="9.08038">
        <ele>2048.117</ele>
        <time>2015-07-01T07:28:58Z</time>
      </trkpt>
      <trkpt lat="42.13684" lon="9.08047">
        <ele>2048.588</ele>
        <time>2015-07-01T07:29:11Z</time>
      </trkpt>
      <trkpt lat="42.13687" lon="9.08057">
        <ele>2049.459</ele>
        <time>2015-07-01T07:29:24Z</time>
      </trkpt>
      <trkpt lat="42.13688" lon="9.08066">
        <ele>2047.005</ele>
        <time>2015-07-01T07:29:37Z</time>
      </trkpt>
      <trkpt lat="42.1369" lon="9.08077">
        <ele>2048.324</ele>
        <time>2015-07-01T07:29:54Z</time>
      </trkpt>
      <trkpt lat="42.13692" lon="9.08082">
        <ele>2049.713</ele>
        <time>2015-07-01T07:30:10Z</time>
      </trkpt>
      <trkpt lat="42.13695" lon="9.08087">
        <ele>2050.119</ele>
        <time>2015-07-01T07:30:25Z</time>
      </trkpt>
      <trkpt lat="42.13696" lon="9.08093">
        <ele>2046.741</ele>
        <time>2015-07-01T07:30:40Z</time>
      </trkpt>
      <trkpt lat="42.13697" lon="9.08099">
        <ele>2045.358</ele>
        <time>2015-07-01T07:30:52Z</time>
      </trkpt>
      <trkpt lat="42.13697" lon="9.08105">
        <ele>2044.197</ele>
        <time>2015-07-01T07:31:07Z</time>
      </trkpt>
      <trkpt lat="42.13697" lon="9.08108">
        <ele>2042.938</ele>
        <time>2015-07-01T07:31:22Z</time>
      </trkpt>
      <trkpt lat="42.13697" lon="9.08113">
        <ele>2041.106</ele>
        <time>2015-07-01T07:31:36Z</time>
      </trkpt>
      <trkpt lat="42.13699" lon="9.08119">
        <ele>2041.315</ele>
        <time>2015-07-01T07:31:50Z</time>
      </trkpt>
      <trkpt lat="42.13702" lon="9.08127">
        <ele>2040.466</ele>
        <time>2015-07-01T07:32:04Z</time>
      </trkpt>
      <trkpt lat="42.137" lon="9.08128">
        <ele>2039.349</ele>
        <time>2015-07-01T07:32:19Z</time>
      </trkpt>
      <trkpt lat="42.13698" lon="9.08131">
        <ele>2037.503</ele>
        <time>2015-07-01T07:32:32Z</time>
      </trkpt>
      <trkpt lat="42.13698" lon="9.08133">
        <ele>2037.425</ele>
        <time>2015-07-01T07:32:44Z</time>
      </trkpt>
      <trkpt lat="42.13697" lon="9.08133">
        <ele>2036.98</ele>
        <time>2015-07-01T07:33:14Z</time>
      </trkpt>
      <trkpt lat="42.13699" lon="9.08138">
        <ele>2036.775</ele>
        <time>2015-07-01T07:33:41Z</time>
      </trkpt>
      <trkpt lat="42.137" lon="9.08146">
        <ele>2035.768</ele>
        <time>2015-07-01T07:33:57Z</time>
      </trkpt>
      <trkpt lat="42.137" lon="9.08148">
        <ele>2035.412</ele>
        <time>2015-07-01T07:34:09Z</time>
      </trkpt>
      <trkpt lat="42.13701" lon="9.08155">
        <ele>2032.376</ele>
        <time>2015-07-01T07:34:20Z</time>
      </trkpt>
      <trkpt lat="42.137" lon="9.08159">
        <ele>2029.784</ele>
        <time>2015-07-01T07:34:31Z</time>
      </trkpt>
      <trkpt lat="42.13703" lon="9.0817">
        <ele>2027.931</ele>
        <time>2015-07-01T07:34:46Z</time>
      </trkpt>
      <trkpt lat="42.13708" lon="9.08187">
        <ele>2026.917</ele>
        <time>2015-07-01T07:35:03Z</time>
      </trkpt>
      <trkpt lat="42.13712" lon="9.082">
        <ele>2025.978</ele>
        <time>2015-07-01T07:35:17Z</time>
      </trkpt>
      <trkpt lat="42.13715" lon="9.08212">
        <ele>2024.808</ele>
        <time>2015-07-01T07:35:31Z</time>
      </trkpt>
      <trkpt lat="42.13719" lon="9.08224">
        <ele>2023.825</ele>
        <time>2015-07-01T07:35:45Z</time>
      </trkpt>
      <trkpt lat="42.13723" lon="9.08235">
        <ele>2024.022</ele>
        <time>2015-07-01T07:35:58Z</time>
      </trkpt>
      <trkpt lat="42.13723" lon="9.08248">
        <ele>2023.439</ele>
        <time>2015-07-01T07:36:11Z</time>
      </trkpt>
      <trkpt lat="42.13723" lon="9.08258">
        <ele>2023.977</ele>
        <time>2015-07-01T07:36:25Z</time>
      </trkpt>
      <trkpt lat="42.1372" lon="9.08262">
        <ele>2020.854</ele>
        <time>2015-07-01T07:36:36Z</time>
      </trkpt>
      <trkpt lat="42.13715" lon="9.08272">
        <ele>2020.326</ele>
        <time>2015-07-01T07:36:51Z</time>
      </trkpt>
      <trkpt lat="42.13715" lon="9.08273">
        <ele>2018.877</ele>
        <time>2015-07-01T07:36:53Z</time>
      </trkpt>
      <trkpt lat="42.13713" lon="9.08282">
        <ele>2017.446</ele>
        <time>2015-07-01T07:37:07Z</time>
      </trkpt>
      <trkpt lat="42.13711" lon="9.08291">
        <ele>2015.739</ele>
        <time>2015-07-01T07:37:19Z</time>
      </trkpt>
      <trkpt lat="42.13712" lon="9.083">
        <ele>2014.168</ele>
        <time>2015-07-01T07:37:34Z</time>
      </trkpt>
      <trkpt lat="42.13712" lon="9.08306">
        <ele>2013.318</ele>
        <time>2015-07-01T07:37:42Z</time>
      </trkpt>
      <trkpt lat="42.13709" lon="9.08321">
        <ele>2013.254</ele>
        <time>2015-07-01T07:37:58Z</time>
      </trkpt>
      <trkpt lat="42.1371" lon="9.08334">
        <ele>2013.018</ele>
        <time>2015-07-01T07:38:12Z</time>
      </trkpt>
      <trkpt lat="42.13712" lon="9.08345">
        <ele>2013.08</ele>
        <time>2015-07-01T07:38:26Z</time>
      </trkpt>
      <trkpt lat="42.13714" lon="9.08359">
        <ele>2013.118</ele>
        <time>2015-07-01T07:38:41Z</time>
      </trkpt>
      <trkpt lat="42.13717" lon="9.08369">
        <ele>2013.36</ele>
        <time>2015-07-01T07:38:57Z</time>
      </trkpt>
      <trkpt lat="42.13718" lon="9.08376">
        <ele>2014.701</ele>
        <time>2015-07-01T07:39:10Z</time>
      </trkpt>
      <trkpt lat="42.13719" lon="9.08385">
        <ele>2015.755</ele>
        <time>2015-07-01T07:39:23Z</time>
      </trkpt>
      <trkpt lat="42.13721" lon="9.08396">
        <ele>2016.628</ele>
        <time>2015-07-01T07:39:38Z</time>
      </trkpt>
      <trkpt lat="42.1372" lon="9.08406">
        <ele>2017.26</ele>
        <time>2015-07-01T07:39:51Z</time>
      </trkpt>
      <trkpt lat="42.13719" lon="9.08413">
        <ele>2018.16</ele>
        <time>2015-07-01T07:40:02Z</time>
      </trkpt>
      <trkpt lat="42.1372" lon="9.08416">
        <ele>2018.944</ele>
        <time>2015-07-01T07:40:15Z</time>
      </trkpt>
      <trkpt lat="42.13722" lon="9.08421">
        <ele>2019.638</ele>
        <time>2015-07-01T07:40:28Z</time>
      </trkpt>
      <trkpt lat="42.13721" lon="9.08422">
        <ele>2017.382</ele>
        <time>2015-07-01T07:40:41Z</time>
      </trkpt>
      <trkpt lat="42.13721" lon="9.08424">
        <ele>2017.166</ele>
        <time>2015-07-01T07:40:52Z</time>
      </trkpt>
      <trkpt lat="42.13721" lon="9.08428">
        <ele>2014.129</ele>
        <time>2015-07-01T07:41:05Z</time>
      </trkpt>
      <trkpt lat="42.13721" lon="9.08432">
        <ele>2012.943</ele>
        <time>2015-07-01T07:41:16Z</time>
      </trkpt>
      <trkpt lat="42.13719" lon="9.08435">
        <ele>2011.91</ele>
        <time>2015-07-01T07:41:28Z</time>
      </trkpt>
      <trkpt lat="42.13719" lon="9.08441">
        <ele>2010.058</ele>
        <time>2015-07-01T07:41:41Z</time>
      </trkpt>
      <trkpt lat="42.13718" lon="9.08445">
        <ele>2008.794</ele>
        <time>2015-07-01T07:41:53Z</time>
      </trkpt>
      <trkpt lat="42.13716" lon="9.08449">
        <ele>2005.938</ele>
        <time>2015-07-01T07:42:05Z</time>
      </trkpt>
      <trkpt lat="42.13717" lon="9.08456">
        <ele>2004.656</ele>
        <time>2015-07-01T07:42:19Z</time>
      </trkpt>
      <trkpt lat="42.13718" lon="9.08461">
        <ele>2002.636</ele>
        <time>2015-07-01T07:42:32Z</time>
      </trkpt>
      <trkpt lat="42.13718" lon="9.08464">
        <ele>2001.444</ele>
        <time>2015-07-01T07:42:42Z</time>
      </trkpt>
      <trkpt lat="42.13714" lon="9.08467">
        <ele>1997.991</ele>
        <time>2015-07-01T07:42:54Z</time>
      </trkpt>
      <trkpt lat="42.13712" lon="9.08474">
        <ele>1996.835</ele>
        <time>2015-07-01T07:43:09Z</time>
      </trkpt>
      <trkpt lat="42.13709" lon="9.08479">
        <ele>1995.878</ele>
        <time>2015-07-01T07:43:25Z</time>
      </trkpt>
      <trkpt lat="42.13708" lon="9.08485">
        <ele>1993.808</ele>
        <time>2015-07-01T07:43:38Z</time>
      </trkpt>
      <trkpt lat="42.13705" lon="9.08487">
        <ele>1991.906</ele>
        <time>2015-07-01T07:43:50Z</time>
      </trkpt>
      <trkpt lat="42.13703" lon="9.08489">
        <ele>1991.007</ele>
        <time>2015-07-01T07:44:03Z</time>
      </trkpt>
      <trkpt lat="42.137" lon="9.08493">
        <ele>1987.997</ele>
        <time>2015-07-01T07:44:17Z</time>
      </trkpt>
      <trkpt lat="42.13698" lon="9.08495">
        <ele>1986.699</ele>
        <time>2015-07-01T07:44:30Z</time>
      </trkpt>
      <trkpt lat="42.13695" lon="9.08498">
        <ele>1985.489</ele>
        <time>2015-07-01T07:44:42Z</time>
      </trkpt>
      <trkpt lat="42.13694" lon="9.08502">
        <ele>1982.824</ele>
        <time>2015-07-01T07:44:55Z</time>
      </trkpt>
      <trkpt lat="42.13693" lon="9.08503">
        <ele>1983.27</ele>
        <time>2015-07-01T07:45:16Z</time>
      </trkpt>
      <trkpt lat="42.1369" lon="9.08503">
        <ele>1980.868</ele>
        <time>2015-07-01T07:45:30Z</time>
      </trkpt>
      <trkpt lat="42.13687" lon="9.08507">
        <ele>1978.998</ele>
        <time>2015-07-01T07:45:43Z</time>
      </trkpt>
      <trkpt lat="42.13687" lon="9.08513">
        <ele>1977.583</ele>
        <time>2015-07-01T07:45:56Z</time>
      </trkpt>
      <trkpt lat="42.13684" lon="9.08517">
        <ele>1976.054</ele>
        <time>2015-07-01T07:46:09Z</time>
      </trkpt>
      <trkpt lat="42.13679" lon="9.08514">
        <ele>1974.583</ele>
        <time>2015-07-01T07:46:22Z</time>
      </trkpt>
      <trkpt lat="42.13676" lon="9.08519">
        <ele>1972.687</ele>
        <time>2015-07-01T07:46:37Z</time>
      </trkpt>
      <trkpt lat="42.13673" lon="9.08518">
        <ele>1970.688</ele>
        <time>2015-07-01T07:46:51Z</time>
      </trkpt>
      <trkpt lat="42.13671" lon="9.08519">
        <ele>1969.19</ele>
        <time>2015-07-01T07:47:05Z</time>
      </trkpt>
      <trkpt lat="42.13666" lon="9.08515">
        <ele>1967.061</ele>
        <time>2015-07-01T07:47:18Z</time>
      </trkpt>
      <trkpt lat="42.13664" lon="9.08521">
        <ele>1964.891</ele>
        <time>2015-07-01T07:47:30Z</time>
      </trkpt>
      <trkpt lat="42.13661" lon="9.08525">
        <ele>1963.427</ele>
        <time>2015-07-01T07:47:43Z</time>
      </trkpt>
      <trkpt lat="42.13657" lon="9.08527">
        <ele>1959.924</ele>
        <time>2015-07-01T07:47:55Z</time>
      </trkpt>
      <trkpt lat="42.13655" lon="9.08532">
        <ele>1958.522</ele>
        <time>2015-07-01T07:48:03Z</time>
      </trkpt>
      <trkpt lat="42.13651" lon="9.08536">
        <ele>1956.653</ele>
        <time>2015-07-01T07:48:16Z</time>
      </trkpt>
      <trkpt lat="42.13648" lon="9.08531">
        <ele>1955.997</ele>
        <time>2015-07-01T07:48:30Z</time>
      </trkpt>
      <trkpt lat="42.13645" lon="9.08533">
        <ele>1954.324</ele>
        <time>2015-07-01T07:48:39Z</time>
      </trkpt>
      <trkpt lat="42.13642" lon="9.08537">
        <ele>1952.829</ele>
        <time>2015-07-01T07:48:52Z</time>
      </trkpt>
      <trkpt lat="42.13638" lon="9.08533">
        <ele>1949.667</ele>
        <time>2015-07-01T07:49:04Z</time>
      </trkpt>
      <trkpt lat="42.13634" lon="9.08542">
        <ele>1947.823</ele>
        <time>2015-07-01T07:49:20Z</time>
      </trkpt>
      <trkpt lat="42.13627" lon="9.08544">
        <ele>1945.951</ele>
        <time>2015-07-01T07:49:36Z</time>
      </trkpt>
      <trkpt lat="42.13621" lon="9.08541">
        <ele>1943.115</ele>
        <time>2015-07-01T07:49:51Z</time>
      </trkpt>
      <trkpt lat="42.13616" lon="9.08538">
        <ele>1940.193</ele>
        <time>2015-07-01T07:50:05Z</time>
      </trkpt>
      <trkpt lat="42.13614" lon="9.08534">
        <ele>1939.548</ele>
        <time>2015-07-01T07:50:18Z</time>
      </trkpt>
      <trkpt lat="42.13614" lon="9.08534">
        <ele>1939.797</ele>
        <time>2015-07-01T07:51:12Z</time>
      </trkpt>
      <trkpt lat="42.13615" lon="9.08532">
        <ele>1938.741</ele>
        <time>2015-07-01T07:52:40Z</time>
      </trkpt>
      <trkpt lat="42.13615" lon="9.08521">
        <ele>1938.108</ele>
        <time>2015-07-01T07:52:55Z</time>
      </trkpt>
      <trkpt lat="42.13612" lon="9.08515">
        <ele>1935.504</ele>
        <time>2015-07-01T07:53:09Z</time>
      </trkpt>
      <trkpt lat="42.1361" lon="9.08504">
        <ele>1934.307</ele>
        <time>2015-07-01T07:53:23Z</time>
      </trkpt>
      <trkpt lat="42.13607" lon="9.08494">
        <ele>1933.648</ele>
        <time>2015-07-01T07:53:37Z</time>
      </trkpt>
      <trkpt lat="42.13604" lon="9.0849">
        <ele>1931.173</ele>
        <time>2015-07-01T07:53:49Z</time>
      </trkpt>
      <trkpt lat="42.13602" lon="9.08485">
        <ele>1929.628</ele>
        <time>2015-07-01T07:54:00Z</time>
      </trkpt>
      <trkpt lat="42.136" lon="9.08473">
        <ele>1930.067</ele>
        <time>2015-07-01T07:54:16Z</time>
      </trkpt>
      <trkpt lat="42.13596" lon="9.08464">
        <ele>1929.245</ele>
        <time>2015-07-01T07:54:29Z</time>
      </trkpt>
      <trkpt lat="42.13593" lon="9.08458">
        <ele>1928.548</ele>
        <time>2015-07-01T07:54:43Z</time>
      </trkpt>
      <trkpt lat="42.13585" lon="9.08451">
        <ele>1925.074</ele>
        <time>2015-07-01T07:54:59Z</time>
      </trkpt>
      <trkpt lat="42.1358" lon="9.08442">
        <ele>1923.732</ele>
        <time>2015-07-01T07:55:14Z</time>
      </trkpt>
      <trkpt lat="42.13576" lon="9.08434">
        <ele>1921.82</ele>
        <time>2015-07-01T07:55:29Z</time>
      </trkpt>
      <trkpt lat="42.13571" lon="9.08434">
        <ele>1920.957</ele>
        <time>2015-07-01T07:55:41Z</time>
      </trkpt>
      <trkpt lat="42.13566" lon="9.08432">
        <ele>1917.686</ele>
        <time>2015-07-01T07:55:51Z</time>
      </trkpt>
      <trkpt lat="42.13561" lon="9.08432">
        <ele>1915.938</ele>
        <time>2015-07-01T07:56:05Z</time>
      </trkpt>
      <trkpt lat="42.13556" lon="9.08434">
        <ele>1912.716</ele>
        <time>2015-07-01T07:56:19Z</time>
      </trkpt>
      <trkpt lat="42.13552" lon="9.08433">
        <ele>1909.557</ele>
        <time>2015-07-01T07:56:31Z</time>
      </trkpt>
      <trkpt lat="42.13547" lon="9.08436">
        <ele>1907.415</ele>
        <time>2015-07-01T07:56:44Z</time>
      </trkpt>
      <trkpt lat="42.13542" lon="9.08431">
        <ele>1906.488</ele>
        <time>2015-07-01T07:56:56Z</time>
      </trkpt>
      <trkpt lat="42.13539" lon="9.08426">
        <ele>1904.502</ele>
        <time>2015-07-01T07:57:10Z</time>
      </trkpt>
      <trkpt lat="42.13538" lon="9.08422">
        <ele>1902.349</ele>
        <time>2015-07-01T07:57:23Z</time>
      </trkpt>
      <trkpt lat="42.13535" lon="9.08421">
        <ele>1900.105</ele>
        <time>2015-07-01T07:57:36Z</time>
      </trkpt>
      <trkpt lat="42.13531" lon="9.08422">
        <ele>1898.41</ele>
        <time>2015-07-01T07:57:50Z</time>
      </trkpt>
      <trkpt lat="42.13531" lon="9.08423">
        <ele>1898.487</ele>
        <time>2015-07-01T07:57:55Z</time>
      </trkpt>
      <trkpt lat="42.13527" lon="9.08424">
        <ele>1897.438</ele>
        <time>2015-07-01T07:58:05Z</time>
      </trkpt>
      <trkpt lat="42.13525" lon="9.08422">
        <ele>1895.724</ele>
        <time>2015-07-01T07:58:18Z</time>
      </trkpt>
      <trkpt lat="42.13523" lon="9.0842">
        <ele>1893.382</ele>
        <time>2015-07-01T07:58:35Z</time>
      </trkpt>
      <trkpt lat="42.1352" lon="9.08414">
        <ele>1892.505</ele>
        <time>2015-07-01T07:58:47Z</time>
      </trkpt>
      <trkpt lat="42.13516" lon="9.08415">
        <ele>1890.75</ele>
        <time>2015-07-01T07:59:00Z</time>
      </trkpt>
      <trkpt lat="42.13511" lon="9.08413">
        <ele>1888.717</ele>
        <time>2015-07-01T07:59:12Z</time>
      </trkpt>
      <trkpt lat="42.13506" lon="9.08421">
        <ele>1887.303</ele>
        <time>2015-07-01T07:59:25Z</time>
      </trkpt>
      <trkpt lat="42.13504" lon="9.0843">
        <ele>1885.619</ele>
        <time>2015-07-01T07:59:39Z</time>
      </trkpt>
      <trkpt lat="42.13501" lon="9.08435">
        <ele>1883.806</ele>
        <time>2015-07-01T07:59:53Z</time>
      </trkpt>
      <trkpt lat="42.13499" lon="9.08437">
        <ele>1882.734</ele>
        <time>2015-07-01T08:00:06Z</time>
      </trkpt>
      <trkpt lat="42.13499" lon="9.08442">
        <ele>1882.413</ele>
        <time>2015-07-01T08:00:17Z</time>
      </trkpt>
      <trkpt lat="42.13498" lon="9.08449">
        <ele>1880.362</ele>
        <time>2015-07-01T08:00:30Z</time>
      </trkpt>
      <trkpt lat="42.13496" lon="9.08452">
        <ele>1878.332</ele>
        <time>2015-07-01T08:00:40Z</time>
      </trkpt>
      <trkpt lat="42.13495" lon="9.0846">
        <ele>1876.479</ele>
        <time>2015-07-01T08:00:54Z</time>
      </trkpt>
      <trkpt lat="42.13495" lon="9.08466">
        <ele>1874.387</ele>
        <time>2015-07-01T08:01:07Z</time>
      </trkpt>
      <trkpt lat="42.13487" lon="9.08463">
        <ele>1872.24</ele>
        <time>2015-07-01T08:01:23Z</time>
      </trkpt>
      <trkpt lat="42.13481" lon="9.08465">
        <ele>1869.444</ele>
        <time>2015-07-01T08:01:36Z</time>
      </trkpt>
      <trkpt lat="42.13479" lon="9.08461">
        <ele>1867.572</ele>
        <time>2015-07-01T08:01:50Z</time>
      </trkpt>
      <trkpt lat="42.13476" lon="9.08458">
        <ele>1865.279</ele>
        <time>2015-07-01T08:02:05Z</time>
      </trkpt>
      <trkpt lat="42.13472" lon="9.08458">
        <ele>1863</ele>
        <time>2015-07-01T08:02:18Z</time>
      </trkpt>
      <trkpt lat="42.13468" lon="9.08455">
        <ele>1861.103</ele>
        <time>2015-07-01T08:02:31Z</time>
      </trkpt>
      <trkpt lat="42.13465" lon="9.08453">
        <ele>1858.767</ele>
        <time>2015-07-01T08:02:43Z</time>
      </trkpt>
      <trkpt lat="42.13463" lon="9.08451">
        <ele>1857.103</ele>
        <time>2015-07-01T08:02:59Z</time>
      </trkpt>
      <trkpt lat="42.13458" lon="9.08452">
        <ele>1853.912</ele>
        <time>2015-07-01T08:03:13Z</time>
      </trkpt>
      <trkpt lat="42.13453" lon="9.08454">
        <ele>1851.081</ele>
        <time>2015-07-01T08:03:26Z</time>
      </trkpt>
      <trkpt lat="42.13449" lon="9.08452">
        <ele>1848.804</ele>
        <time>2015-07-01T08:03:40Z</time>
      </trkpt>
      <trkpt lat="42.13442" lon="9.08452">
        <ele>1845.881</ele>
        <time>2015-07-01T08:03:55Z</time>
      </trkpt>
      <trkpt lat="42.13436" lon="9.08453">
        <ele>1844.289</ele>
        <time>2015-07-01T08:04:09Z</time>
      </trkpt>
      <trkpt lat="42.13431" lon="9.08457">
        <ele>1843.139</ele>
        <time>2015-07-01T08:04:19Z</time>
      </trkpt>
      <trkpt lat="42.13426" lon="9.08463">
        <ele>1841.871</ele>
        <time>2015-07-01T08:04:32Z</time>
      </trkpt>
      <trkpt lat="42.13424" lon="9.08466">
        <ele>1841.629</ele>
        <time>2015-07-01T08:04:44Z</time>
      </trkpt>
      <trkpt lat="42.13422" lon="9.08474">
        <ele>1839.447</ele>
        <time>2015-07-01T08:04:58Z</time>
      </trkpt>
      <trkpt lat="42.1342" lon="9.08476">
        <ele>1838.139</ele>
        <time>2015-07-01T08:05:03Z</time>
      </trkpt>
      <trkpt lat="42.13418" lon="9.08482">
        <ele>1835.043</ele>
        <time>2015-07-01T08:05:13Z</time>
      </trkpt>
      <trkpt lat="42.13418" lon="9.08489">
        <ele>1831.732</ele>
        <time>2015-07-01T08:05:22Z</time>
      </trkpt>
      <trkpt lat="42.13414" lon="9.0849">
        <ele>1830.574</ele>
        <time>2015-07-01T08:05:35Z</time>
      </trkpt>
      <trkpt lat="42.13408" lon="9.08486">
        <ele>1829.816</ele>
        <time>2015-07-01T08:05:49Z</time>
      </trkpt>
      <trkpt lat="42.13404" lon="9.08492">
        <ele>1826.655</ele>
        <time>2015-07-01T08:06:00Z</time>
      </trkpt>
      <trkpt lat="42.134" lon="9.08499">
        <ele>1823.414</ele>
        <time>2015-07-01T08:06:13Z</time>
      </trkpt>
      <trkpt lat="42.13396" lon="9.08508">
        <ele>1821.431</ele>
        <time>2015-07-01T08:06:28Z</time>
      </trkpt>
      <trkpt lat="42.13394" lon="9.08514">
        <ele>1818.942</ele>
        <time>2015-07-01T08:06:41Z</time>
      </trkpt>
      <trkpt lat="42.13393" lon="9.08522">
        <ele>1818.331</ele>
        <time>2015-07-01T08:06:50Z</time>
      </trkpt>
      <trkpt lat="42.13393" lon="9.08536">
        <ele>1817.055</ele>
        <time>2015-07-01T08:07:06Z</time>
      </trkpt>
      <trkpt lat="42.13392" lon="9.08546">
        <ele>1814.868</ele>
        <time>2015-07-01T08:07:20Z</time>
      </trkpt>
      <trkpt lat="42.13389" lon="9.08546">
        <ele>1813.458</ele>
        <time>2015-07-01T08:07:32Z</time>
      </trkpt>
      <trkpt lat="42.13388" lon="9.08549">
        <ele>1811.685</ele>
        <time>2015-07-01T08:07:45Z</time>
      </trkpt>
      <trkpt lat="42.13386" lon="9.08552">
        <ele>1810.04</ele>
        <time>2015-07-01T08:07:56Z</time>
      </trkpt>
      <trkpt lat="42.13386" lon="9.08556">
        <ele>1808.408</ele>
        <time>2015-07-01T08:08:09Z</time>
      </trkpt>
      <trkpt lat="42.13378" lon="9.08555">
        <ele>1805.328</ele>
        <time>2015-07-01T08:08:26Z</time>
      </trkpt>
      <trkpt lat="42.13372" lon="9.0855">
        <ele>1802.146</ele>
        <time>2015-07-01T08:08:41Z</time>
      </trkpt>
      <trkpt lat="42.13367" lon="9.08545">
        <ele>1799.372</ele>
        <time>2015-07-01T08:08:54Z</time>
      </trkpt>
      <trkpt lat="42.13363" lon="9.08543">
        <ele>1798.634</ele>
        <time>2015-07-01T08:09:07Z</time>
      </trkpt>
      <trkpt lat="42.13361" lon="9.08538">
        <ele>1796.845</ele>
        <time>2015-07-01T08:09:19Z</time>
      </trkpt>
      <trkpt lat="42.13359" lon="9.08534">
        <ele>1795.637</ele>
        <time>2015-07-01T08:09:33Z</time>
      </trkpt>
      <trkpt lat="42.13355" lon="9.08532">
        <ele>1792.439</ele>
        <time>2015-07-01T08:09:46Z</time>
      </trkpt>
      <trkpt lat="42.13353" lon="9.08531">
        <ele>1790.321</ele>
        <time>2015-07-01T08:09:58Z</time>
      </trkpt>
      <trkpt lat="42.13348" lon="9.08531">
        <ele>1788.786</ele>
        <time>2015-07-01T08:10:12Z</time>
      </trkpt>
      <trkpt lat="42.13348" lon="9.08522">
        <ele>1788.328</ele>
        <time>2015-07-01T08:10:24Z</time>
      </trkpt>
      <trkpt lat="42.13346" lon="9.08512">
        <ele>1785.821</ele>
        <time>2015-07-01T08:10:37Z</time>
      </trkpt>
      <trkpt lat="42.1334" lon="9.08504">
        <ele>1785.855</ele>
        <time>2015-07-01T08:10:50Z</time>
      </trkpt>
      <trkpt lat="42.13338" lon="9.08502">
        <ele>1786.71</ele>
        <time>2015-07-01T08:11:02Z</time>
      </trkpt>
      <trkpt lat="42.13334" lon="9.08497">
        <ele>1783.604</ele>
        <time>2015-07-01T08:11:20Z</time>
      </trkpt>
      <trkpt lat="42.1333" lon="9.0849">
        <ele>1780.503</ele>
        <time>2015-07-01T08:11:33Z</time>
      </trkpt>
      <trkpt lat="42.13327" lon="9.08485">
        <ele>1778.014</ele>
        <time>2015-07-01T08:11:46Z</time>
      </trkpt>
      <trkpt lat="42.13325" lon="9.08476">
        <ele>1777.313</ele>
        <time>2015-07-01T08:11:58Z</time>
      </trkpt>
      <trkpt lat="42.13327" lon="9.08465">
        <ele>1776.038</ele>
        <time>2015-07-01T08:12:12Z</time>
      </trkpt>
      <trkpt lat="42.13326" lon="9.08461">
        <ele>1774.543</ele>
        <time>2015-07-01T08:12:25Z</time>
      </trkpt>
      <trkpt lat="42.13324" lon="9.08455">
        <ele>1772.153</ele>
        <time>2015-07-01T08:12:41Z</time>
      </trkpt>
      <trkpt lat="42.13322" lon="9.08455">
        <ele>1771.134</ele>
        <time>2015-07-01T08:12:53Z</time>
      </trkpt>
      <trkpt lat="42.13318" lon="9.08454">
        <ele>1769.029</ele>
        <time>2015-07-01T08:13:05Z</time>
      </trkpt>
      <trkpt lat="42.13314" lon="9.08453">
        <ele>1766.915</ele>
        <time>2015-07-01T08:13:19Z</time>
      </trkpt>
      <trkpt lat="42.13307" lon="9.08456">
        <ele>1764.517</ele>
        <time>2015-07-01T08:13:37Z</time>
      </trkpt>
      <trkpt lat="42.133" lon="9.08463">
        <ele>1761.712</ele>
        <time>2015-07-01T08:13:52Z</time>
      </trkpt>
      <trkpt lat="42.13296" lon="9.08467">
        <ele>1760.086</ele>
        <time>2015-07-01T08:14:08Z</time>
      </trkpt>
      <trkpt lat="42.13293" lon="9.08469">
        <ele>1757.19</ele>
        <time>2015-07-01T08:14:20Z</time>
      </trkpt>
      <trkpt lat="42.13288" lon="9.08477">
        <ele>1755.392</ele>
        <time>2015-07-01T08:14:35Z</time>
      </trkpt>
      <trkpt lat="42.13287" lon="9.08486">
        <ele>1753.625</ele>
        <time>2015-07-01T08:14:46Z</time>
      </trkpt>
      <trkpt lat="42.13283" lon="9.08486">
        <ele>1750.444</ele>
        <time>2015-07-01T08:15:00Z</time>
      </trkpt>
      <trkpt lat="42.13281" lon="9.08485">
        <ele>1750.149</ele>
        <time>2015-07-01T08:15:11Z</time>
      </trkpt>
      <trkpt lat="42.13277" lon="9.08488">
        <ele>1750.788</ele>
        <time>2015-07-01T08:15:22Z</time>
      </trkpt>
      <trkpt lat="42.13274" lon="9.08495">
        <ele>1749.259</ele>
        <time>2015-07-01T08:15:36Z</time>
      </trkpt>
      <trkpt lat="42.13268" lon="9.08502">
        <ele>1747.252</ele>
        <time>2015-07-01T08:15:52Z</time>
      </trkpt>
      <trkpt lat="42.13263" lon="9.08503">
        <ele>1745.75</ele>
        <time>2015-07-01T08:16:04Z</time>
      </trkpt>
      <trkpt lat="42.13262" lon="9.0851">
        <ele>1743.261</ele>
        <time>2015-07-01T08:16:17Z</time>
      </trkpt>
      <trkpt lat="42.13256" lon="9.08511">
        <ele>1743.026</ele>
        <time>2015-07-01T08:16:29Z</time>
      </trkpt>
      <trkpt lat="42.13247" lon="9.08513">
        <ele>1741.589</ele>
        <time>2015-07-01T08:16:42Z</time>
      </trkpt>
      <trkpt lat="42.13242" lon="9.08509">
        <ele>1739.872</ele>
        <time>2015-07-01T08:16:56Z</time>
      </trkpt>
      <trkpt lat="42.13233" lon="9.08506">
        <ele>1737.879</ele>
        <time>2015-07-01T08:17:11Z</time>
      </trkpt>
      <trkpt lat="42.13223" lon="9.08497">
        <ele>1734.983</ele>
        <time>2015-07-01T08:17:28Z</time>
      </trkpt>
      <trkpt lat="42.13216" lon="9.08488">
        <ele>1734.72</ele>
        <time>2015-07-01T08:17:42Z</time>
      </trkpt>
      <trkpt lat="42.13211" lon="9.08484">
        <ele>1733.297</ele>
        <time>2015-07-01T08:17:55Z</time>
      </trkpt>
      <trkpt lat="42.13207" lon="9.08481">
        <ele>1732.023</ele>
        <time>2015-07-01T08:18:07Z</time>
      </trkpt>
      <trkpt lat="42.13201" lon="9.08484">
        <ele>1729.803</ele>
        <time>2015-07-01T08:18:19Z</time>
      </trkpt>
      <trkpt lat="42.13199" lon="9.08484">
        <ele>1727.954</ele>
        <time>2015-07-01T08:18:26Z</time>
      </trkpt>
      <trkpt lat="42.13189" lon="9.08476">
        <ele>1727.012</ele>
        <time>2015-07-01T08:18:42Z</time>
      </trkpt>
      <trkpt lat="42.13188" lon="9.0847">
        <ele>1726.006</ele>
        <time>2015-07-01T08:18:58Z</time>
      </trkpt>
      <trkpt lat="42.13187" lon="9.08467">
        <ele>1724.81</ele>
        <time>2015-07-01T08:19:14Z</time>
      </trkpt>
      <trkpt lat="42.13183" lon="9.08466">
        <ele>1723.125</ele>
        <time>2015-07-01T08:19:27Z</time>
      </trkpt>
      <trkpt lat="42.13179" lon="9.08466">
        <ele>1721.378</ele>
        <time>2015-07-01T08:19:39Z</time>
      </trkpt>
      <trkpt lat="42.13173" lon="9.08467">
        <ele>1720.596</ele>
        <time>2015-07-01T08:19:52Z</time>
      </trkpt>
      <trkpt lat="42.13167" lon="9.08466">
        <ele>1718.634</ele>
        <time>2015-07-01T08:20:05Z</time>
      </trkpt>
      <trkpt lat="42.13163" lon="9.08466">
        <ele>1717.678</ele>
        <time>2015-07-01T08:20:14Z</time>
      </trkpt>
      <trkpt lat="42.1316" lon="9.08465">
        <ele>1715.626</ele>
        <time>2015-07-01T08:20:28Z</time>
      </trkpt>
      <trkpt lat="42.13157" lon="9.08463">
        <ele>1713.949</ele>
        <time>2015-07-01T08:20:42Z</time>
      </trkpt>
      <trkpt lat="42.13156" lon="9.08461">
        <ele>1712.43</ele>
        <time>2015-07-01T08:20:55Z</time>
      </trkpt>
      <trkpt lat="42.13151" lon="9.08466">
        <ele>1711.024</ele>
        <time>2015-07-01T08:21:09Z</time>
      </trkpt>
      <trkpt lat="42.13147" lon="9.08473">
        <ele>1709.376</ele>
        <time>2015-07-01T08:21:22Z</time>
      </trkpt>
      <trkpt lat="42.13144" lon="9.08475">
        <ele>1707.634</ele>
        <time>2015-07-01T08:21:34Z</time>
      </trkpt>
      <trkpt lat="42.13142" lon="9.08478">
        <ele>1707.539</ele>
        <time>2015-07-01T08:21:44Z</time>
      </trkpt>
      <trkpt lat="42.1314" lon="9.08484">
        <ele>1707.49</ele>
        <time>2015-07-01T08:21:56Z</time>
      </trkpt>
      <trkpt lat="42.13139" lon="9.08487">
        <ele>1705.939</ele>
        <time>2015-07-01T08:22:13Z</time>
      </trkpt>
      <trkpt lat="42.13139" lon="9.08489">
        <ele>1704.754</ele>
        <time>2015-07-01T08:22:25Z</time>
      </trkpt>
      <trkpt lat="42.13138" lon="9.08495">
        <ele>1702.817</ele>
        <time>2015-07-01T08:22:40Z</time>
      </trkpt>
      <trkpt lat="42.13139" lon="9.085">
        <ele>1700.585</ele>
        <time>2015-07-01T08:22:54Z</time>
      </trkpt>
      <trkpt lat="42.13139" lon="9.08505">
        <ele>1698.742</ele>
        <time>2015-07-01T08:23:09Z</time>
      </trkpt>
      <trkpt lat="42.13142" lon="9.08513">
        <ele>1697.681</ele>
        <time>2015-07-01T08:23:22Z</time>
      </trkpt>
      <trkpt lat="42.1314" lon="9.08523">
        <ele>1696.301</ele>
        <time>2015-07-01T08:23:37Z</time>
      </trkpt>
      <trkpt lat="42.13136" lon="9.08529">
        <ele>1693.587</ele>
        <time>2015-07-01T08:23:51Z</time>
      </trkpt>
      <trkpt lat="42.13135" lon="9.08537">
        <ele>1692.312</ele>
        <time>2015-07-01T08:24:02Z</time>
      </trkpt>
      <trkpt lat="42.13134" lon="9.08545">
        <ele>1689.597</ele>
        <time>2015-07-01T08:24:16Z</time>
      </trkpt>
      <trkpt lat="42.13137" lon="9.0855">
        <ele>1688.026</ele>
        <time>2015-07-01T08:24:28Z</time>
      </trkpt>
      <trkpt lat="42.1314" lon="9.08553">
        <ele>1687.421</ele>
        <time>2015-07-01T08:24:47Z</time>
      </trkpt>
      <trkpt lat="42.13144" lon="9.08555">
        <ele>1686.87</ele>
        <time>2015-07-01T08:25:01Z</time>
      </trkpt>
      <trkpt lat="42.13148" lon="9.0856">
        <ele>1684.794</ele>
        <time>2015-07-01T08:25:13Z</time>
      </trkpt>
      <trkpt lat="42.1315" lon="9.08567">
        <ele>1683.314</ele>
        <time>2015-07-01T08:25:26Z</time>
      </trkpt>
      <trkpt lat="42.13152" lon="9.08573">
        <ele>1681.439</ele>
        <time>2015-07-01T08:25:37Z</time>
      </trkpt>
      <trkpt lat="42.13151" lon="9.08573">
        <ele>1681.17</ele>
        <time>2015-07-01T08:25:38Z</time>
      </trkpt>
      <trkpt lat="42.13152" lon="9.08579">
        <ele>1679.011</ele>
        <time>2015-07-01T08:25:50Z</time>
      </trkpt>
      <trkpt lat="42.13152" lon="9.08583">
        <ele>1678.906</ele>
        <time>2015-07-01T08:26:01Z</time>
      </trkpt>
      <trkpt lat="42.13152" lon="9.08588">
        <ele>1675.283</ele>
        <time>2015-07-01T08:26:12Z</time>
      </trkpt>
      <trkpt lat="42.13152" lon="9.08588">
        <ele>1675.366</ele>
        <time>2015-07-01T08:26:13Z</time>
      </trkpt>
      <trkpt lat="42.13154" lon="9.08594">
        <ele>1674.717</ele>
        <time>2015-07-01T08:26:25Z</time>
      </trkpt>
      <trkpt lat="42.13154" lon="9.086">
        <ele>1673.502</ele>
        <time>2015-07-01T08:26:39Z</time>
      </trkpt>
      <trkpt lat="42.1315" lon="9.08601">
        <ele>1670.168</ele>
        <time>2015-07-01T08:26:53Z</time>
      </trkpt>
      <trkpt lat="42.13148" lon="9.086">
        <ele>1670.142</ele>
        <time>2015-07-01T08:27:05Z</time>
      </trkpt>
      <trkpt lat="42.13147" lon="9.08603">
        <ele>1667.952</ele>
        <time>2015-07-01T08:27:20Z</time>
      </trkpt>
      <trkpt lat="42.13144" lon="9.08606">
        <ele>1666.866</ele>
        <time>2015-07-01T08:27:35Z</time>
      </trkpt>
      <trkpt lat="42.1314" lon="9.08606">
        <ele>1664.846</ele>
        <time>2015-07-01T08:27:48Z</time>
      </trkpt>
      <trkpt lat="42.13135" lon="9.08604">
        <ele>1663.729</ele>
        <time>2015-07-01T08:28:00Z</time>
      </trkpt>
      <trkpt lat="42.1313" lon="9.08605">
        <ele>1661.065</ele>
        <time>2015-07-01T08:28:15Z</time>
      </trkpt>
      <trkpt lat="42.13124" lon="9.08603">
        <ele>1659.121</ele>
        <time>2015-07-01T08:28:29Z</time>
      </trkpt>
      <trkpt lat="42.13117" lon="9.08604">
        <ele>1658.522</ele>
        <time>2015-07-01T08:28:42Z</time>
      </trkpt>
      <trkpt lat="42.13112" lon="9.08604">
        <ele>1657.332</ele>
        <time>2015-07-01T08:28:51Z</time>
      </trkpt>
      <trkpt lat="42.13104" lon="9.08602">
        <ele>1655.022</ele>
        <time>2015-07-01T08:29:06Z</time>
      </trkpt>
      <trkpt lat="42.131" lon="9.08596">
        <ele>1652.922</ele>
        <time>2015-07-01T08:29:18Z</time>
      </trkpt>
      <trkpt lat="42.13097" lon="9.08588">
        <ele>1651.416</ele>
        <time>2015-07-01T08:29:31Z</time>
      </trkpt>
      <trkpt lat="42.13094" lon="9.0858">
        <ele>1649.679</ele>
        <time>2015-07-01T08:29:45Z</time>
      </trkpt>
      <trkpt lat="42.13087" lon="9.08575">
        <ele>1647.289</ele>
        <time>2015-07-01T08:30:02Z</time>
      </trkpt>
      <trkpt lat="42.13078" lon="9.08575">
        <ele>1645.85</ele>
        <time>2015-07-01T08:30:13Z</time>
      </trkpt>
      <trkpt lat="42.13068" lon="9.08578">
        <ele>1644.38</ele>
        <time>2015-07-01T08:30:28Z</time>
      </trkpt>
      <trkpt lat="42.1306" lon="9.08577">
        <ele>1642.788</ele>
        <time>2015-07-01T08:30:41Z</time>
      </trkpt>
      <trkpt lat="42.13053" lon="9.08579">
        <ele>1640.35</ele>
        <time>2015-07-01T08:30:52Z</time>
      </trkpt>
      <trkpt lat="42.1305" lon="9.08577">
        <ele>1639.531</ele>
        <time>2015-07-01T08:30:58Z</time>
      </trkpt>
      <trkpt lat="42.1304" lon="9.08579">
        <ele>1637.88</ele>
        <time>2015-07-01T08:31:14Z</time>
      </trkpt>
      <trkpt lat="42.13032" lon="9.08582">
        <ele>1636.284</ele>
        <time>2015-07-01T08:31:26Z</time>
      </trkpt>
      <trkpt lat="42.13021" lon="9.08585">
        <ele>1635.583</ele>
        <time>2015-07-01T08:31:39Z</time>
      </trkpt>
      <trkpt lat="42.13009" lon="9.08593">
        <ele>1633.815</ele>
        <time>2015-07-01T08:31:54Z</time>
      </trkpt>
      <trkpt lat="42.13006" lon="9.08595">
        <ele>1633.637</ele>
        <time>2015-07-01T08:31:58Z</time>
      </trkpt>
      <trkpt lat="42.12996" lon="9.08603">
        <ele>1631.652</ele>
        <time>2015-07-01T08:32:13Z</time>
      </trkpt>
      <trkpt lat="42.1299" lon="9.08602">
        <ele>1630.485</ele>
        <time>2015-07-01T08:32:23Z</time>
      </trkpt>
      <trkpt lat="42.12983" lon="9.08607">
        <ele>1629.164</ele>
        <time>2015-07-01T08:32:34Z</time>
      </trkpt>
      <trkpt lat="42.12975" lon="9.08607">
        <ele>1628.466</ele>
        <time>2015-07-01T08:32:46Z</time>
      </trkpt>
      <trkpt lat="42.12967" lon="9.08613">
        <ele>1627.167</ele>
        <time>2015-07-01T08:32:56Z</time>
      </trkpt>
      <trkpt lat="42.1296" lon="9.08612">
        <ele>1625.626</ele>
        <time>2015-07-01T08:33:08Z</time>
      </trkpt>
      <trkpt lat="42.12954" lon="9.0861">
        <ele>1625.122</ele>
        <time>2015-07-01T08:33:14Z</time>
      </trkpt>
      <trkpt lat="42.12944" lon="9.08619">
        <ele>1626.219</ele>
        <time>2015-07-01T08:33:28Z</time>
      </trkpt>
      <trkpt lat="42.12938" lon="9.08631">
        <ele>1626.046</ele>
        <time>2015-07-01T08:33:42Z</time>
      </trkpt>
      <trkpt lat="42.12936" lon="9.08634">
        <ele>1625.464</ele>
        <time>2015-07-01T08:33:57Z</time>
      </trkpt>
      <trkpt lat="42.12936" lon="9.08638">
        <ele>1624.038</ele>
        <time>2015-07-01T08:34:03Z</time>
      </trkpt>
      <trkpt lat="42.12936" lon="9.08645">
        <ele>1622.644</ele>
        <time>2015-07-01T08:34:14Z</time>
      </trkpt>
      <trkpt lat="42.12932" lon="9.08653">
        <ele>1620.919</ele>
        <time>2015-07-01T08:34:26Z</time>
      </trkpt>
      <trkpt lat="42.12931" lon="9.08663">
        <ele>1618.777</ele>
        <time>2015-07-01T08:34:38Z</time>
      </trkpt>
      <trkpt lat="42.12929" lon="9.08671">
        <ele>1616.714</ele>
        <time>2015-07-01T08:34:55Z</time>
      </trkpt>
      <trkpt lat="42.12929" lon="9.08678">
        <ele>1614.304</ele>
        <time>2015-07-01T08:35:10Z</time>
      </trkpt>
      <trkpt lat="42.1293" lon="9.08686">
        <ele>1613.087</ele>
        <time>2015-07-01T08:35:24Z</time>
      </trkpt>
    </trkseg>
  </trk>
</gpx>